UAL8860 KDAB-EDFH

Flight info

Callsign UAL8860
Flight time 8h 53m
Altitude 33000
Route ROYES7 CRG DCT FEMON Q87 JROSS Q409 GUILD Q64 SAWED Q108 ZJAAY Q167 YAZUU Q97 BLENO Q439 BEEKN Q480 ENE Q822 ALLEX/N0485F350 N469B BUDAR/M084F350 DCT 51N044W 52N037W 53N029W 53N021W/N0479F350 DCT GISTI/N0480F370 DCT LUPOR DCT SLANY DCT SAWPE Q63 CPT UL9 BIG L607 KONAN UL607 SPI T180 NIVNU DCT ROPUV
Aircraft B77W/H-SDE1E2E3FGHIJ2J3J4J5M1RWXY/LB1D1

Departure

Time 2026-04-26 19:25
Airport Daytona Beach International Airport (KDAB)

Arrival

Time 2026-04-27 04:19
Airport Frankfurt-Hahn Airport (EDFH)
Time Latitude Longitude Altitude Speed Heading
2026-04-26 18:27 29.18474 -81.05689 47 ft 0 kts 304°
2026-04-26 19:08 29.18473 -81.05685 66 ft 4 kts 349°
2026-04-26 19:08 29.18467 -81.05687 47 ft 4 kts 359°
2026-04-26 19:08 29.18455 -81.05685 45 ft 1 kts 333°
2026-04-26 19:09 29.18448 -81.05681 43 ft 4 kts 328°
2026-04-26 19:09 29.18430 -81.05661 42 ft 4 kts 296°
2026-04-26 19:09 29.18420 -81.05632 41 ft 4 kts 289°
2026-04-26 19:09 29.18412 -81.05604 44 ft 4 kts 281°
2026-04-26 19:10 29.18407 -81.05573 44 ft 4 kts 282°
2026-04-26 19:10 29.18406 -81.05567 44 ft 0 kts 283°
2026-04-26 19:16 29.18410 -81.05585 47 ft 3 kts 280°
2026-04-26 19:16 29.18410 -81.05609 47 ft 3 kts 269°
2026-04-26 19:16 29.18405 -81.05646 47 ft 6 kts 255°
2026-04-26 19:16 29.18394 -81.05681 47 ft 0 kts 248°
2026-04-26 19:18 29.18389 -81.05695 47 ft 6 kts 246°
2026-04-26 19:19 29.18361 -81.05765 45 ft 9 kts 245°
2026-04-26 19:19 29.18328 -81.05823 47 ft 9 kts 217°
2026-04-26 19:19 29.18268 -81.05824 47 ft 9 kts 165°
2026-04-26 19:19 29.18208 -81.05838 47 ft 10 kts 219°
2026-04-26 19:20 29.18161 -81.05919 47 ft 16 kts 243°
2026-04-26 19:20 29.18146 -81.05956 45 ft 16 kts 244°
2026-04-26 19:20 29.18069 -81.06145 47 ft 16 kts 245°
2026-04-26 19:20 29.18023 -81.06259 47 ft 16 kts 245°
2026-04-26 19:21 29.17977 -81.06372 47 ft 16 kts 245°
2026-04-26 19:21 29.17930 -81.06485 47 ft 16 kts 244°
2026-04-26 19:21 29.17886 -81.06597 46 ft 16 kts 245°
2026-04-26 19:21 29.17840 -81.06710 47 ft 16 kts 245°
2026-04-26 19:22 29.17795 -81.06824 47 ft 16 kts 245°
2026-04-26 19:22 29.17749 -81.06937 47 ft 16 kts 245°
2026-04-26 19:22 29.17703 -81.07050 47 ft 16 kts 245°
2026-04-26 19:22 29.17657 -81.07164 47 ft 16 kts 245°
2026-04-26 19:23 29.17611 -81.07276 48 ft 16 kts 244°
2026-04-26 19:23 29.17561 -81.07387 48 ft 16 kts 242°
2026-04-26 19:23 29.17509 -81.07497 48 ft 16 kts 240°
2026-04-26 19:23 29.17454 -81.07605 48 ft 16 kts 240°
2026-04-26 19:24 29.17362 -81.07636 48 ft 16 kts 146°
2026-04-26 19:24 29.17362 -81.07519 48 ft 16 kts 66°
2026-04-26 19:24 29.17683 -81.06725 45 ft 124 kts 65°
2026-04-26 19:25 29.18149 -81.05578 58 ft 189 kts 65°
2026-04-26 19:25 29.18337 -81.05126 151 ft 196 kts 67°
2026-04-26 19:25 29.19366 -81.02748 1128 ft 210 kts 62°
2026-04-26 19:25 29.20043 -81.01233 1709 ft 216 kts 63°
2026-04-26 19:26 29.20480 -81.00209 2174 ft 219 kts 62°
2026-04-26 19:26 29.21441 -80.97966 2544 ft 252 kts 63°
2026-04-26 19:26 29.22338 -80.96209 2943 ft 262 kts 45°
2026-04-26 19:26 29.23835 -80.95035 3459 ft 265 kts 16°
2026-04-26 19:27 29.25054 -80.94755 3748 ft 266 kts
2026-04-26 19:27 29.26885 -80.94780 4014 ft 264 kts 354°
2026-04-26 19:27 29.28755 -80.94931 3986 ft 271 kts 354°
2026-04-26 19:27 29.30634 -80.95112 4280 ft 269 kts 351°
2026-04-26 19:28 29.32387 -80.95705 4971 ft 268 kts 326°
2026-04-26 19:28 29.33759 -80.97145 5818 ft 264 kts 307°
2026-04-26 19:28 29.34836 -80.98820 6601 ft 265 kts 304°
2026-04-26 19:28 29.35811 -81.00611 7220 ft 267 kts 296°
2026-04-26 19:29 29.36587 -81.02563 7834 ft 271 kts 293°
2026-04-26 19:29 29.37339 -81.04552 8504 ft 273 kts 293°
2026-04-26 19:29 29.38118 -81.06547 9170 ft 276 kts 294°
2026-04-26 19:29 29.38931 -81.08550 9819 ft 279 kts 295°
2026-04-26 19:30 29.39775 -81.10569 10347 ft 285 kts 295°
2026-04-26 19:30 29.40678 -81.12688 10502 ft 307 kts 296°
2026-04-26 19:30 29.41657 -81.14952 10669 ft 327 kts 296°
2026-04-26 19:30 29.42346 -81.16532 10779 ft 341 kts 296°
2026-04-26 19:31 29.43824 -81.19900 11178 ft 362 kts 296°
2026-04-26 19:31 29.44973 -81.22507 11690 ft 370 kts 296°
2026-04-26 19:31 29.46142 -81.25156 12334 ft 374 kts 296°
2026-04-26 19:31 29.47319 -81.27825 13027 ft 377 kts 297°
2026-04-26 19:32 29.48506 -81.30517 13720 ft 380 kts 297°
2026-04-26 19:32 29.49703 -81.33234 14308 ft 383 kts 297°
2026-04-26 19:32 29.50907 -81.35969 14915 ft 385 kts 297°
2026-04-26 19:32 29.52126 -81.38713 15516 ft 384 kts 299°
2026-04-26 19:33 29.53771 -81.41148 15870 ft 393 kts 319°
2026-04-26 19:33 29.56104 -81.42820 16439 ft 399 kts 334°
2026-04-26 19:33 29.58768 -81.43742 17089 ft 403 kts 349°
2026-04-26 19:33 29.61532 -81.44071 17582 ft 408 kts 352°
2026-04-26 19:34 29.64387 -81.44317 18094 ft 414 kts 353°
2026-04-26 19:34 29.67273 -81.44545 18620 ft 417 kts 353°
2026-04-26 19:34 29.70179 -81.44782 19142 ft 420 kts 353°
2026-04-26 19:34 29.73106 -81.45035 19643 ft 424 kts 353°
2026-04-26 19:35 29.76064 -81.45305 20151 ft 428 kts 352°
2026-04-26 19:35 29.78984 -81.45582 20636 ft 432 kts 352°
2026-04-26 19:35 29.81994 -81.45874 21143 ft 436 kts 352°
2026-04-26 19:35 29.85028 -81.46172 21648 ft 439 kts 352°
2026-04-26 19:36 29.88085 -81.46473 22150 ft 443 kts 352°
2026-04-26 19:36 29.90161 -81.46678 22474 ft 445 kts 352°
2026-04-26 19:36 29.94274 -81.47084 23080 ft 450 kts 352°
2026-04-26 19:36 29.97406 -81.47393 23544 ft 454 kts 352°
2026-04-26 19:37 30.00564 -81.47704 23950 ft 457 kts 352°
2026-04-26 19:37 30.03736 -81.48016 24408 ft 458 kts 352°
2026-04-26 19:37 30.06913 -81.48329 24878 ft 459 kts 352°
2026-04-26 19:37 30.10101 -81.48644 25331 ft 460 kts 352°
2026-04-26 19:38 30.13297 -81.48960 25773 ft 462 kts 351°
2026-04-26 19:38 30.16502 -81.49277 26268 ft 462 kts 351°
2026-04-26 19:38 30.19711 -81.49594 26705 ft 464 kts 351°
2026-04-26 19:38 30.22932 -81.49913 27103 ft 466 kts 351°
2026-04-26 19:39 30.26173 -81.50234 27487 ft 468 kts 351°
2026-04-26 19:39 30.29427 -81.50557 27867 ft 470 kts 351°
2026-04-26 19:39 30.32699 -81.50866 28266 ft 473 kts 352°
2026-04-26 19:39 30.36001 -81.50927 28634 ft 478 kts 358°
2026-04-26 19:40 30.39333 -81.50668 28975 ft 481 kts 360°
2026-04-26 19:40 30.42680 -81.50369 29297 ft 483 kts 360°
2026-04-26 19:40 30.46040 -81.50067 29602 ft 485 kts 360°
2026-04-26 19:40 30.49408 -81.49772 29917 ft 486 kts 359°
2026-04-26 19:41 30.52777 -81.49486 30311 ft 484 kts 359°
2026-04-26 19:41 30.56125 -81.49208 30808 ft 480 kts 359°
2026-04-26 19:41 30.59433 -81.48937 31356 ft 474 kts 359°
2026-04-26 19:41 30.61602 -81.48760 31720 ft 470 kts 358°
2026-04-26 19:42 30.65932 -81.48410 32414 ft 463 kts 358°
2026-04-26 19:42 30.69135 -81.48152 32871 ft 459 kts 358°
2026-04-26 19:42 30.75447 -81.47646 32954 ft 457 kts 358°
2026-04-26 19:43 30.81801 -81.47135 32936 ft 458 kts 358°
2026-04-26 19:43 30.88167 -81.46620 32928 ft 459 kts 358°
2026-04-26 19:44 30.94538 -81.46102 32911 ft 459 kts 358°
2026-04-26 19:44 31.00911 -81.45583 32915 ft 459 kts 357°
2026-04-26 19:45 31.07272 -81.45065 32906 ft 458 kts 357°
2026-04-26 19:45 31.13619 -81.44547 32907 ft 457 kts 357°
2026-04-26 19:46 31.19953 -81.44024 32907 ft 456 kts 358°
2026-04-26 19:46 31.26255 -81.42580 32931 ft 467 kts
2026-04-26 19:47 31.31368 -81.40382 32927 ft 475 kts 17°
2026-04-26 19:47 31.38372 -81.36524 32923 ft 476 kts 18°
2026-04-26 19:48 31.44355 -81.33215 32921 ft 475 kts 17°
2026-04-26 19:48 31.50349 -81.29942 32945 ft 475 kts 17°
2026-04-26 19:49 31.56354 -81.26672 32927 ft 476 kts 17°
2026-04-26 19:49 31.62363 -81.23393 32915 ft 476 kts 18°
2026-04-26 19:50 31.68375 -81.20107 32908 ft 477 kts 18°
2026-04-26 19:50 31.74346 -81.16840 32900 ft 477 kts 18°
2026-04-26 19:51 31.80365 -81.13544 32902 ft 479 kts 18°
2026-04-26 19:51 31.86418 -81.10222 32900 ft 481 kts 18°
2026-04-26 19:52 31.92504 -81.06875 32895 ft 484 kts 18°
2026-04-26 19:52 31.98615 -81.03511 32902 ft 486 kts 18°
2026-04-26 19:53 32.04750 -81.00108 32891 ft 488 kts 17°
2026-04-26 19:53 32.10891 -80.96668 32891 ft 490 kts 17°
2026-04-26 19:54 32.17052 -80.93212 32920 ft 490 kts 17°
2026-04-26 19:54 32.23213 -80.89752 32948 ft 490 kts 17°
2026-04-26 19:55 32.29318 -80.86320 32954 ft 489 kts 17°
2026-04-26 19:55 32.35454 -80.82867 32932 ft 488 kts 17°
2026-04-26 19:56 32.41577 -80.79416 32941 ft 487 kts 17°
2026-04-26 19:56 32.47692 -80.75964 32930 ft 487 kts 17°
2026-04-26 19:57 32.53800 -80.72512 32936 ft 486 kts 17°
2026-04-26 19:57 32.59908 -80.69054 32940 ft 487 kts 18°
2026-04-26 19:58 32.66005 -80.65594 32929 ft 485 kts 18°
2026-04-26 19:58 32.72005 -80.61880 32927 ft 491 kts 25°
2026-04-26 19:59 32.77545 -80.57020 32938 ft 496 kts 30°
2026-04-26 19:59 32.83001 -80.51981 32962 ft 497 kts 31°
2026-04-26 20:00 32.88475 -80.46958 32950 ft 496 kts 30°
2026-04-26 20:00 32.93953 -80.41968 32944 ft 496 kts 30°
2026-04-26 20:01 32.99432 -80.36984 32942 ft 496 kts 30°
2026-04-26 20:01 33.04911 -80.31990 32949 ft 496 kts 30°
2026-04-26 20:02 33.10387 -80.26988 32946 ft 496 kts 30°
2026-04-26 20:02 33.14938 -80.22824 32948 ft 496 kts 30°
2026-04-26 20:03 33.21338 -80.16957 32964 ft 496 kts 30°
2026-04-26 20:03 33.26821 -80.11924 32965 ft 497 kts 31°
2026-04-26 20:04 33.32283 -80.06903 32966 ft 500 kts 31°
2026-04-26 20:04 33.37799 -80.01821 32970 ft 501 kts 31°
2026-04-26 20:05 33.43325 -79.96723 32963 ft 502 kts 31°
2026-04-26 20:05 33.48863 -79.91605 32962 ft 503 kts 31°
2026-04-26 20:06 33.54391 -79.86485 33024 ft 501 kts 31°
2026-04-26 20:06 33.59903 -79.81372 32993 ft 500 kts 31°
2026-04-26 20:07 33.65404 -79.76265 32989 ft 500 kts 32°
2026-04-26 20:07 33.70903 -79.71149 32991 ft 500 kts 32°
2026-04-26 20:08 33.76411 -79.66016 32973 ft 502 kts 32°
2026-04-26 20:08 33.81932 -79.60862 32975 ft 503 kts 32°
2026-04-26 20:09 33.87422 -79.55724 32976 ft 504 kts 32°
2026-04-26 20:09 33.92891 -79.50431 32988 ft 505 kts 33°
2026-04-26 20:10 33.98325 -79.45083 33007 ft 504 kts 33°
2026-04-26 20:10 34.03766 -79.39744 33029 ft 505 kts 33°
2026-04-26 20:11 34.09231 -79.34389 33038 ft 507 kts 33°
2026-04-26 20:12 34.17461 -79.26310 33027 ft 508 kts 34°
2026-04-26 20:12 34.22945 -79.20912 33032 ft 508 kts 34°
2026-04-26 20:13 34.28509 -79.15652 33016 ft 506 kts 30°
2026-04-26 20:13 34.34273 -79.10771 33014 ft 505 kts 29°
2026-04-26 20:14 34.40028 -79.05889 33008 ft 505 kts 30°
2026-04-26 20:14 34.45745 -79.00913 33027 ft 508 kts 32°
2026-04-26 20:15 34.51342 -78.95666 33052 ft 509 kts 33°
2026-04-26 20:15 34.56974 -78.90442 33040 ft 510 kts 32°
2026-04-26 20:16 34.62585 -78.85276 33018 ft 510 kts 32°
2026-04-26 20:16 34.68228 -78.80067 33033 ft 510 kts 32°
2026-04-26 20:17 34.73865 -78.74845 33061 ft 509 kts 33°
2026-04-26 20:17 34.79492 -78.69619 33048 ft 508 kts 33°
2026-04-26 20:18 34.85106 -78.64396 33031 ft 507 kts 33°
2026-04-26 20:18 34.90709 -78.59176 33049 ft 507 kts 33°
2026-04-26 20:19 34.95406 -78.54793 33064 ft 508 kts 33°
2026-04-26 20:19 35.00985 -78.49578 33071 ft 509 kts 34°
2026-04-26 20:20 35.06597 -78.44322 33059 ft 508 kts 34°
2026-04-26 20:20 35.12196 -78.39069 33053 ft 507 kts 34°
2026-04-26 20:21 35.17775 -78.33825 33051 ft 505 kts 34°
2026-04-26 20:21 35.23339 -78.28588 33061 ft 504 kts 34°
2026-04-26 20:22 35.28889 -78.23352 33059 ft 503 kts 34°
2026-04-26 20:22 35.34436 -78.18116 33056 ft 503 kts 34°
2026-04-26 20:23 35.39970 -78.12883 33076 ft 502 kts 34°
2026-04-26 20:23 35.45498 -78.07645 33083 ft 502 kts 34°
2026-04-26 20:24 35.51028 -78.02395 33084 ft 503 kts 34°
2026-04-26 20:24 35.56559 -77.97134 33083 ft 503 kts 34°
2026-04-26 20:25 35.62097 -77.91858 33073 ft 505 kts 35°
2026-04-26 20:25 35.67652 -77.86556 33102 ft 506 kts 35°
2026-04-26 20:26 35.73215 -77.81236 33081 ft 507 kts 36°
2026-04-26 20:26 35.78776 -77.75908 33077 ft 506 kts 36°
2026-04-26 20:27 35.84292 -77.70613 33083 ft 506 kts 36°
2026-04-26 20:27 35.89832 -77.65287 33113 ft 504 kts 36°
2026-04-26 20:28 35.95357 -77.59965 33098 ft 503 kts 36°
2026-04-26 20:28 36.00871 -77.54643 33106 ft 504 kts 36°
2026-04-26 20:29 36.06399 -77.49300 33107 ft 506 kts 36°
2026-04-26 20:29 36.11948 -77.43925 33105 ft 507 kts 37°
2026-04-26 20:30 36.17509 -77.38528 33108 ft 508 kts 37°
2026-04-26 20:30 36.23069 -77.33122 33123 ft 508 kts 37°
2026-04-26 20:31 36.28628 -77.27707 33112 ft 508 kts 37°
2026-04-26 20:31 36.34069 -77.22138 33104 ft 507 kts 41°
2026-04-26 20:32 36.39314 -77.16257 33129 ft 510 kts 42°
2026-04-26 20:32 36.44571 -77.10303 33123 ft 513 kts 41°
2026-04-26 20:33 36.49871 -77.04328 33118 ft 516 kts 41°
2026-04-26 20:33 36.55199 -76.98336 33108 ft 517 kts 41°
2026-04-26 20:34 36.60491 -76.92380 33141 ft 516 kts 41°
2026-04-26 20:34 36.65806 -76.86385 33108 ft 515 kts 42°
2026-04-26 20:35 36.71122 -76.80374 33128 ft 518 kts 42°
2026-04-26 20:35 36.76468 -76.74316 33138 ft 521 kts 42°
2026-04-26 20:36 36.81840 -76.68219 33146 ft 523 kts 42°
2026-04-26 20:36 36.87223 -76.62095 33117 ft 524 kts 42°
2026-04-26 20:37 36.92604 -76.55962 33120 ft 523 kts 42°
2026-04-26 20:37 36.97970 -76.49834 33098 ft 521 kts 42°
2026-04-26 20:38 37.03331 -76.43700 33123 ft 524 kts 42°
2026-04-26 20:38 37.08724 -76.37518 33115 ft 527 kts 42°
2026-04-26 20:39 37.14143 -76.31291 33124 ft 530 kts 42°
2026-04-26 20:39 37.19541 -76.25076 33121 ft 530 kts 42°
2026-04-26 20:40 37.24999 -76.18780 33115 ft 529 kts 42°
2026-04-26 20:40 37.30398 -76.12539 33115 ft 527 kts 42°
2026-04-26 20:41 37.35791 -76.06291 33126 ft 528 kts 42°
2026-04-26 20:41 37.41156 -76.00064 33140 ft 530 kts 41°
2026-04-26 20:42 37.46613 -75.93716 33144 ft 531 kts 41°
2026-04-26 20:42 37.52069 -75.87431 33138 ft 532 kts 39°
2026-04-26 20:43 37.58054 -75.82117 33137 ft 529 kts 28°
2026-04-26 20:43 37.64420 -75.77465 33132 ft 529 kts 27°
2026-04-26 20:44 37.70776 -75.72752 33133 ft 530 kts 28°
2026-04-26 20:44 37.77112 -75.67966 33140 ft 531 kts 28°
2026-04-26 20:45 37.83452 -75.63167 33148 ft 532 kts 28°
2026-04-26 20:45 37.89636 -75.58010 33140 ft 533 kts 32°
2026-04-26 20:46 37.95722 -75.52646 33148 ft 532 kts 32°
2026-04-26 20:46 38.01805 -75.47335 33150 ft 526 kts 32°
2026-04-26 20:47 38.07744 -75.42124 33122 ft 516 kts 33°
2026-04-26 20:47 38.13586 -75.36613 33156 ft 530 kts 34°
2026-04-26 20:48 38.19545 -75.30900 33186 ft 541 kts 34°
2026-04-26 20:48 38.25490 -75.25244 33153 ft 526 kts 34°
2026-04-26 20:49 38.31345 -75.19700 33172 ft 525 kts 34°
2026-04-26 20:49 38.37210 -75.14137 33171 ft 526 kts 34°
2026-04-26 20:50 38.43063 -75.08565 33163 ft 518 kts 34°
2026-04-26 20:50 38.48715 -75.02967 33156 ft 519 kts 39°
2026-04-26 20:51 38.54160 -74.96825 33174 ft 531 kts 39°
2026-04-26 20:51 38.59880 -74.90820 33169 ft 531 kts 36°
2026-04-26 20:52 38.65557 -74.85043 33148 ft 513 kts 36°
2026-04-26 20:52 38.71091 -74.79297 33168 ft 513 kts 37°
2026-04-26 20:53 38.76600 -74.73439 33169 ft 517 kts 39°
2026-04-26 20:53 38.81928 -74.67225 33174 ft 515 kts 40°
2026-04-26 20:54 38.87133 -74.61063 33154 ft 506 kts 40°
2026-04-26 20:54 38.92342 -74.54960 33170 ft 508 kts 39°
2026-04-26 20:55 38.97627 -74.48925 33157 ft 508 kts 37°
2026-04-26 20:55 39.03070 -74.43125 33165 ft 508 kts 36°
2026-04-26 20:56 39.08514 -74.37327 33164 ft 508 kts 37°
2026-04-26 20:56 39.13930 -74.31474 33153 ft 509 kts 37°
2026-04-26 20:57 39.19340 -74.25589 33196 ft 509 kts 37°
2026-04-26 20:57 39.24753 -74.19689 33168 ft 509 kts 37°
2026-04-26 20:58 39.30112 -74.13840 33170 ft 507 kts 37°
2026-04-26 20:58 39.35489 -74.07961 33173 ft 506 kts 37°
2026-04-26 20:59 39.41046 -74.02477 33170 ft 499 kts 28°
2026-04-26 20:59 39.47174 -73.98411 33165 ft 493 kts 18°
2026-04-26 21:00 39.53557 -73.95135 33179 ft 495 kts 17°
2026-04-26 21:00 39.59970 -73.91822 33165 ft 498 kts 18°
2026-04-26 21:01 39.66406 -73.88438 33186 ft 500 kts 18°
2026-04-26 21:01 39.72856 -73.85020 33173 ft 501 kts 18°
2026-04-26 21:02 39.79303 -73.81598 33199 ft 500 kts 18°
2026-04-26 21:02 39.85722 -73.78188 33178 ft 496 kts 18°
2026-04-26 21:03 39.92089 -73.74800 33170 ft 493 kts 18°
2026-04-26 21:03 39.98249 -73.70839 33209 ft 496 kts 28°
2026-04-26 21:04 40.03876 -73.65596 33193 ft 497 kts 32°
2026-04-26 21:04 40.09478 -73.60202 33193 ft 505 kts 32°
2026-04-26 21:05 40.15187 -73.54780 33183 ft 508 kts 32°
2026-04-26 21:05 40.20858 -73.49412 33190 ft 506 kts 32°
2026-04-26 21:06 40.26537 -73.44023 33169 ft 503 kts 32°
2026-04-26 21:06 40.32175 -73.38648 33184 ft 500 kts 32°
2026-04-26 21:07 40.37785 -73.33285 33185 ft 498 kts 32°
2026-04-26 21:07 40.43371 -73.27934 33182 ft 497 kts 32°
2026-04-26 21:08 40.48972 -73.22561 33190 ft 500 kts 32°
2026-04-26 21:08 40.53649 -73.18066 33221 ft 502 kts 32°
2026-04-26 21:09 40.60223 -73.11731 33193 ft 505 kts 32°
2026-04-26 21:09 40.65888 -73.06257 33186 ft 505 kts 32°
2026-04-26 21:10 40.70631 -73.01665 33187 ft 504 kts 32°
2026-04-26 21:10 40.76234 -72.96230 33188 ft 502 kts 32°
2026-04-26 21:11 40.81855 -72.90768 33194 ft 503 kts 32°
2026-04-26 21:11 40.87497 -72.85275 33202 ft 505 kts 32°
2026-04-26 21:12 40.93168 -72.79741 33204 ft 508 kts 32°
2026-04-26 21:12 40.98923 -72.74365 33202 ft 506 kts 30°
2026-04-26 21:13 41.04727 -72.69112 33194 ft 504 kts 30°
2026-04-26 21:13 41.10493 -72.63838 33211 ft 503 kts 30°
2026-04-26 21:14 41.16230 -72.58540 33180 ft 502 kts 30°
2026-04-26 21:14 41.21970 -72.53228 33181 ft 504 kts 30°
2026-04-26 21:15 41.27760 -72.47963 33204 ft 503 kts 27°
2026-04-26 21:15 41.33918 -72.43657 33176 ft 499 kts 22°
2026-04-26 21:16 41.40140 -72.39584 33173 ft 498 kts 22°
2026-04-26 21:16 41.46293 -72.35503 33174 ft 497 kts 22°
2026-04-26 21:17 41.52463 -72.31355 33173 ft 496 kts 22°
2026-04-26 21:17 41.58623 -72.27192 33166 ft 496 kts 22°
2026-04-26 21:18 41.64780 -72.23024 33186 ft 497 kts 23°
2026-04-26 21:18 41.70958 -72.18837 33176 ft 498 kts 23°
2026-04-26 21:19 41.77152 -72.14630 33166 ft 500 kts 23°
2026-04-26 21:19 41.83350 -72.10409 33186 ft 499 kts 24°
2026-04-26 21:20 41.89535 -72.06188 33175 ft 498 kts 24°
2026-04-26 21:20 41.95693 -72.01975 33164 ft 495 kts 24°
2026-04-26 21:21 42.01775 -71.97808 33199 ft 492 kts 24°
2026-04-26 21:21 42.07858 -71.93629 33179 ft 490 kts 24°
2026-04-26 21:22 42.13878 -71.89359 33175 ft 490 kts 28°
2026-04-26 21:22 42.19429 -71.83954 33194 ft 494 kts 36°
2026-04-26 21:23 42.27574 -71.75343 33177 ft 497 kts 36°
2026-04-26 21:23 42.33040 -71.69617 33177 ft 498 kts 35°
2026-04-26 21:24 42.38511 -71.63904 33189 ft 495 kts 36°
2026-04-26 21:24 42.43944 -71.58223 33174 ft 491 kts 36°
2026-04-26 21:25 42.49334 -71.52573 33180 ft 490 kts 36°
2026-04-26 21:25 42.54721 -71.46911 33198 ft 490 kts 36°
2026-04-26 21:26 42.60112 -71.41231 33187 ft 491 kts 36°
2026-04-26 21:26 42.65512 -71.35529 33182 ft 492 kts 36°
2026-04-26 21:27 42.70910 -71.29815 33188 ft 492 kts 37°
2026-04-26 21:27 42.76263 -71.24137 33198 ft 491 kts 37°
2026-04-26 21:28 42.81637 -71.18423 33202 ft 489 kts 37°
2026-04-26 21:28 42.86991 -71.12718 33207 ft 488 kts 37°
2026-04-26 21:29 42.92395 -71.07165 33177 ft 485 kts 31°
2026-04-26 21:29 42.98240 -71.02648 33190 ft 482 kts 27°
2026-04-26 21:30 43.04120 -70.98258 33191 ft 481 kts 27°
2026-04-26 21:30 43.09965 -70.93820 33182 ft 480 kts 28°
2026-04-26 21:31 43.15790 -70.89349 33183 ft 480 kts 28°
2026-04-26 21:31 43.21620 -70.84866 33165 ft 482 kts 28°
2026-04-26 21:32 43.27483 -70.80353 33182 ft 485 kts 28°
2026-04-26 21:32 43.33243 -70.75486 33187 ft 489 kts 37°
2026-04-26 21:33 43.38210 -70.69112 33194 ft 490 kts 49°
2026-04-26 21:33 43.42197 -70.61611 33191 ft 489 kts 59°
2026-04-26 21:34 43.45144 -70.53332 33195 ft 488 kts 67°
2026-04-26 21:34 43.47703 -70.44696 33195 ft 487 kts 67°
2026-04-26 21:35 43.50275 -70.36064 33186 ft 487 kts 67°
2026-04-26 21:35 43.52865 -70.27430 33195 ft 488 kts 67°
2026-04-26 21:36 43.55024 -70.20236 33195 ft 489 kts 67°
2026-04-26 21:36 43.58063 -70.10081 33196 ft 490 kts 67°
2026-04-26 21:37 43.60656 -70.01376 33191 ft 490 kts 67°
2026-04-26 21:37 43.63239 -69.92676 33211 ft 489 kts 67°
2026-04-26 21:38 43.65810 -69.83982 33208 ft 489 kts 68°
2026-04-26 21:38 43.68376 -69.75280 33214 ft 489 kts 68°
2026-04-26 21:39 43.70935 -69.66572 33207 ft 489 kts 68°
2026-04-26 21:39 43.73465 -69.57908 33202 ft 490 kts 68°
2026-04-26 21:40 43.75925 -69.49123 33208 ft 490 kts 69°
2026-04-26 21:40 43.78351 -69.40303 33197 ft 491 kts 69°
2026-04-26 21:41 43.80782 -69.31468 33209 ft 491 kts 69°
2026-04-26 21:41 43.83218 -69.22620 33205 ft 492 kts 69°
2026-04-26 21:42 43.85651 -69.13761 33204 ft 492 kts 69°
2026-04-26 21:42 43.88076 -69.04902 33203 ft 491 kts 69°
2026-04-26 21:43 43.90490 -68.96048 33203 ft 491 kts 69°
2026-04-26 21:43 43.92895 -68.87194 33201 ft 491 kts 69°
2026-04-26 21:44 43.95280 -68.78377 33208 ft 492 kts 69°
2026-04-26 21:44 43.97678 -68.69483 33207 ft 492 kts 69°
2026-04-26 21:45 44.00072 -68.60571 33208 ft 493 kts 70°
2026-04-26 21:45 44.02461 -68.51647 33203 ft 493 kts 70°
2026-04-26 21:46 44.04842 -68.42717 33194 ft 493 kts 70°
2026-04-26 21:46 44.07219 -68.33770 33201 ft 494 kts 70°
2026-04-26 21:47 44.09594 -68.24796 33206 ft 495 kts 70°
2026-04-26 21:47 44.11965 -68.15802 33201 ft 495 kts 70°
2026-04-26 21:48 44.14329 -68.06802 33198 ft 495 kts 70°
2026-04-26 21:48 44.16685 -67.97796 33195 ft 495 kts 70°
2026-04-26 21:49 44.19034 -67.88787 33191 ft 495 kts 70°
2026-04-26 21:49 44.21377 -67.79762 33202 ft 496 kts 70°
2026-04-26 21:50 44.23322 -67.72247 33202 ft 496 kts 70°
2026-04-26 21:50 44.26037 -67.61714 33202 ft 497 kts 70°
2026-04-26 21:51 44.28490 -67.52713 33198 ft 496 kts 64°
2026-04-26 21:51 44.32008 -67.44451 33205 ft 495 kts 55°
2026-04-26 21:52 44.35905 -67.36517 33186 ft 495 kts 55°
2026-04-26 21:52 44.39775 -67.28540 33201 ft 496 kts 55°
2026-04-26 21:53 44.43623 -67.20514 33200 ft 497 kts 55°
2026-04-26 21:53 44.47462 -67.12454 33200 ft 498 kts 56°
2026-04-26 21:54 44.51298 -67.04378 33199 ft 498 kts 56°
2026-04-26 21:54 44.55129 -66.96293 33195 ft 498 kts 56°
2026-04-26 21:55 44.58955 -66.88200 33196 ft 498 kts 56°
2026-04-26 21:55 44.62771 -66.80106 33191 ft 497 kts 56°
2026-04-26 21:56 44.66574 -66.72016 33188 ft 496 kts 56°
2026-04-26 21:56 44.70364 -66.63928 33180 ft 496 kts 56°
2026-04-26 21:57 44.74151 -66.55828 33189 ft 496 kts 56°
2026-04-26 21:57 44.77935 -66.47709 33185 ft 496 kts 56°
2026-04-26 21:58 44.81720 -66.39567 33189 ft 497 kts 56°
2026-04-26 21:58 44.85476 -66.31462 33188 ft 497 kts 56°
2026-04-26 21:59 44.89278 -66.23236 33195 ft 498 kts 56°
2026-04-26 21:59 44.93026 -66.15102 33192 ft 498 kts 56°
2026-04-26 22:00 44.96790 -66.06911 33194 ft 497 kts 56°
2026-04-26 22:00 45.00547 -65.98712 33203 ft 497 kts 56°
2026-04-26 22:01 45.04292 -65.90513 33190 ft 496 kts 56°
2026-04-26 22:01 45.08026 -65.82317 33184 ft 495 kts 56°
2026-04-26 22:02 45.11142 -65.75458 33184 ft 494 kts 56°
2026-04-26 22:02 45.15452 -65.65947 33188 ft 493 kts 56°
2026-04-26 22:03 45.19145 -65.57769 33190 ft 492 kts 56°
2026-04-26 22:03 45.22204 -65.50980 33184 ft 491 kts 56°
2026-04-26 22:04 45.25873 -65.42813 33185 ft 490 kts 56°
2026-04-26 22:04 45.29533 -65.34644 33194 ft 490 kts 57°
2026-04-26 22:05 45.33177 -65.26486 33182 ft 488 kts 57°
2026-04-26 22:05 45.36803 -65.18347 33184 ft 486 kts 57°
2026-04-26 22:06 45.40412 -65.10218 33185 ft 486 kts 57°
2026-04-26 22:06 45.44009 -65.02097 33197 ft 484 kts 58°
2026-04-26 22:07 45.47577 -64.94017 33176 ft 480 kts 58°
2026-04-26 22:07 45.51112 -64.85989 33176 ft 477 kts 58°
2026-04-26 22:08 45.54622 -64.77996 33181 ft 475 kts 58°
2026-04-26 22:08 45.58092 -64.70070 33196 ft 473 kts 58°
2026-04-26 22:09 45.61572 -64.62100 33182 ft 472 kts 58°
2026-04-26 22:09 45.65037 -64.54142 33185 ft 472 kts 58°
2026-04-26 22:10 45.68496 -64.46177 33182 ft 471 kts 58°
2026-04-26 22:10 45.71947 -64.38201 33185 ft 472 kts 58°
2026-04-26 22:11 45.75398 -64.30205 33180 ft 472 kts 59°
2026-04-26 22:11 45.78844 -64.22200 33182 ft 472 kts 59°
2026-04-26 22:12 45.82284 -64.14188 33188 ft 472 kts 59°
2026-04-26 22:12 45.85716 -64.06168 33188 ft 472 kts 59°
2026-04-26 22:13 45.89140 -63.98146 33197 ft 471 kts 59°
2026-04-26 22:13 45.92556 -63.90117 33195 ft 471 kts 59°
2026-04-26 22:14 45.95965 -63.82083 33195 ft 471 kts 59°
2026-04-26 22:14 45.99370 -63.74039 33219 ft 471 kts 59°
2026-04-26 22:15 46.02760 -63.66002 33203 ft 469 kts 59°
2026-04-26 22:15 46.06131 -63.57987 33207 ft 467 kts 59°
2026-04-26 22:16 46.09487 -63.49985 33214 ft 466 kts 59°
2026-04-26 22:16 46.12811 -63.42040 33216 ft 465 kts 59°
2026-04-26 22:17 46.16137 -63.34067 33208 ft 462 kts 59°
2026-04-26 22:17 46.19436 -63.26132 33211 ft 460 kts 60°
2026-04-26 22:18 46.22716 -63.18221 33211 ft 458 kts 60°
2026-04-26 22:18 46.25984 -63.10318 33212 ft 458 kts 60°
2026-04-26 22:19 46.29236 -63.02428 33223 ft 456 kts 60°
2026-04-26 22:19 46.32476 -62.94549 33212 ft 455 kts 60°
2026-04-26 22:20 46.35706 -62.86673 33218 ft 455 kts 60°
2026-04-26 22:20 46.38925 -62.78797 33223 ft 454 kts 60°
2026-04-26 22:21 46.42138 -62.70915 33231 ft 454 kts 60°
2026-04-26 22:21 46.45337 -62.63046 33222 ft 452 kts 60°
2026-04-26 22:22 46.48496 -62.55250 33224 ft 451 kts 60°
2026-04-26 22:22 46.51665 -62.47408 33225 ft 450 kts 60°
2026-04-26 22:23 46.54825 -62.39569 33243 ft 449 kts 60°
2026-04-26 22:23 46.57960 -62.31768 33221 ft 445 kts 60°
2026-04-26 22:24 46.61066 -62.24014 33234 ft 443 kts 60°
2026-04-26 22:24 46.64152 -62.16292 33219 ft 440 kts 60°
2026-04-26 22:25 46.67221 -62.08588 33225 ft 439 kts 60°
2026-04-26 22:25 46.70280 -62.00890 33228 ft 438 kts 61°
2026-04-26 22:26 46.73324 -61.93206 33216 ft 437 kts 61°
2026-04-26 22:26 46.76359 -61.85524 33218 ft 437 kts 61°
2026-04-26 22:27 46.79389 -61.77834 33219 ft 437 kts 61°
2026-04-26 22:27 46.82393 -61.70189 33229 ft 437 kts 61°
2026-04-26 22:28 46.85408 -61.62493 33207 ft 436 kts 61°
2026-04-26 22:28 46.88408 -61.54813 33214 ft 435 kts 61°
2026-04-26 22:29 46.91395 -61.47143 33246 ft 434 kts 61°
2026-04-26 22:29 46.94374 -61.39473 33220 ft 433 kts 61°
2026-04-26 22:30 46.97339 -61.31819 33225 ft 430 kts 61°
2026-04-26 22:30 47.00276 -61.24218 33212 ft 427 kts 61°
2026-04-26 22:31 47.03186 -61.16663 33214 ft 425 kts 61°
2026-04-26 22:31 47.06079 -61.09130 33213 ft 424 kts 61°
2026-04-26 22:32 47.08969 -61.01586 33235 ft 424 kts 61°
2026-04-26 22:32 47.11855 -60.94028 33220 ft 425 kts 61°
2026-04-26 22:33 47.16182 -60.82662 33211 ft 425 kts 61°
2026-04-26 22:34 47.19061 -60.75070 33210 ft 425 kts 61°
2026-04-26 22:34 47.21936 -60.67468 33208 ft 425 kts 61°
2026-04-26 22:35 47.24807 -60.59856 33208 ft 425 kts 61°
2026-04-26 22:35 47.27648 -60.52301 33197 ft 424 kts 61°
2026-04-26 22:36 47.30498 -60.44702 33199 ft 423 kts 61°
2026-04-26 22:36 47.33338 -60.37108 33198 ft 423 kts 61°
2026-04-26 22:37 47.36169 -60.29515 33171 ft 422 kts 61°
2026-04-26 22:37 47.38994 -60.21918 33186 ft 422 kts 61°
2026-04-26 22:38 47.41816 -60.14309 33181 ft 423 kts 61°
2026-04-26 22:38 47.44633 -60.06689 33184 ft 423 kts 62°
2026-04-26 22:39 47.47449 -59.99049 33168 ft 423 kts 62°
2026-04-26 22:39 47.50260 -59.91401 33174 ft 424 kts 61°
2026-04-26 22:40 47.53072 -59.83731 33159 ft 424 kts 62°
2026-04-26 22:40 47.55876 -59.76059 33165 ft 423 kts 61°
2026-04-26 22:41 47.58669 -59.68392 33152 ft 422 kts 61°
2026-04-26 22:41 47.61450 -59.60739 33143 ft 421 kts 61°
2026-04-26 22:42 47.64221 -59.53092 33142 ft 421 kts 61°
2026-04-26 22:42 47.66983 -59.45446 33139 ft 420 kts 61°
2026-04-26 22:43 47.69740 -59.37793 33139 ft 421 kts 61°
2026-04-26 22:43 47.72475 -59.30179 33134 ft 421 kts 62°
2026-04-26 22:44 47.75224 -59.22502 33138 ft 421 kts 62°
2026-04-26 22:44 47.77968 -59.14817 33139 ft 421 kts 61°
2026-04-26 22:45 47.80703 -59.07134 33142 ft 420 kts 61°
2026-04-26 22:45 47.83428 -58.99460 33138 ft 419 kts 61°
2026-04-26 22:46 47.86140 -58.91799 33145 ft 418 kts 61°
2026-04-26 22:46 47.88843 -58.84142 33142 ft 417 kts 61°
2026-04-26 22:47 47.91536 -58.76489 33134 ft 416 kts 60°
2026-04-26 22:47 47.94216 -58.68849 33133 ft 415 kts 61°
2026-04-26 22:48 47.96885 -58.61220 33132 ft 415 kts 61°
2026-04-26 22:48 47.99547 -58.53590 33129 ft 414 kts 61°
2026-04-26 22:49 48.02205 -58.45948 33149 ft 414 kts 61°
2026-04-26 22:49 48.04858 -58.38297 33155 ft 415 kts 60°
2026-04-26 22:50 48.07495 -58.30672 33137 ft 416 kts 60°
2026-04-26 22:50 48.10148 -58.22977 33144 ft 416 kts 60°
2026-04-26 22:51 48.12799 -58.15264 33139 ft 417 kts 60°
2026-04-26 22:51 48.15445 -58.07541 33137 ft 417 kts 61°
2026-04-26 22:52 48.18088 -57.99806 33123 ft 417 kts 61°
2026-04-26 22:52 48.20730 -57.92050 33111 ft 418 kts 61°
2026-04-26 22:53 48.23369 -57.84281 33125 ft 418 kts 61°
2026-04-26 22:53 48.26003 -57.76502 33108 ft 418 kts 61°
2026-04-26 22:54 48.28631 -57.68717 33116 ft 418 kts 61°
2026-04-26 22:54 48.31235 -57.60979 33123 ft 418 kts 61°
2026-04-26 22:55 48.33856 -57.53169 33093 ft 419 kts 61°
2026-04-26 22:55 48.36471 -57.45352 33095 ft 419 kts 61°
2026-04-26 22:56 48.39082 -57.37524 33110 ft 418 kts 61°
2026-04-26 22:56 48.41685 -57.29694 33096 ft 418 kts 61°
2026-04-26 22:57 48.43862 -57.23125 33088 ft 418 kts 61°
2026-04-26 22:57 48.46455 -57.15281 33087 ft 418 kts 61°
2026-04-26 22:58 48.49039 -57.07443 33067 ft 417 kts 61°
2026-04-26 22:58 48.51611 -56.99617 33062 ft 416 kts 61°
2026-04-26 22:59 48.54156 -56.91847 33053 ft 415 kts 61°
2026-04-26 22:59 48.56709 -56.84030 33036 ft 415 kts 61°
2026-04-26 23:00 48.59257 -56.76203 33034 ft 415 kts 61°
2026-04-26 23:00 48.61801 -56.68366 33041 ft 416 kts 61°
2026-04-26 23:01 48.64342 -56.60515 33039 ft 416 kts 61°
2026-04-26 23:01 48.66880 -56.52646 33039 ft 416 kts 61°
2026-04-26 23:02 48.69416 -56.44758 33032 ft 417 kts 61°
2026-04-26 23:02 48.71952 -56.36845 33037 ft 418 kts 61°
2026-04-26 23:03 48.74484 -56.28923 33071 ft 418 kts 61°
2026-04-26 23:03 48.77008 -56.20996 33040 ft 417 kts 61°
2026-04-26 23:04 48.79520 -56.13086 33042 ft 415 kts 61°
2026-04-26 23:04 48.82017 -56.05193 33039 ft 414 kts 61°
2026-04-26 23:05 48.84506 -55.97307 33035 ft 414 kts 61°
2026-04-26 23:05 48.86971 -55.89471 33034 ft 414 kts 61°
2026-04-26 23:06 48.89449 -55.81567 33047 ft 415 kts 61°
2026-04-26 23:06 48.91926 -55.73643 33039 ft 415 kts 61°
2026-04-26 23:07 48.94401 -55.65700 33043 ft 416 kts 61°
2026-04-26 23:07 48.96875 -55.57732 33031 ft 417 kts 61°
2026-04-26 23:08 48.99347 -55.49748 33049 ft 417 kts 61°
2026-04-26 23:08 49.01815 -55.41748 33041 ft 418 kts 61°
2026-04-26 23:09 49.04279 -55.33738 33037 ft 417 kts 61°
2026-04-26 23:09 49.06727 -55.25750 33042 ft 415 kts 61°
2026-04-26 23:10 49.09161 -55.17782 33022 ft 414 kts 61°
2026-04-26 23:10 49.11568 -55.09881 33025 ft 413 kts 61°
2026-04-26 23:11 49.13981 -55.01936 33020 ft 412 kts 61°
2026-04-26 23:11 49.16389 -54.93978 33014 ft 413 kts 61°
2026-04-26 23:12 49.18796 -54.86000 33014 ft 414 kts 61°
2026-04-26 23:12 49.21203 -54.77994 33005 ft 415 kts 61°
2026-04-26 23:13 49.23607 -54.69973 33003 ft 415 kts 61°
2026-04-26 23:13 49.26007 -54.61939 33001 ft 415 kts 61°
2026-04-26 23:14 49.28404 -54.53889 33005 ft 415 kts 61°
2026-04-26 23:14 49.30795 -54.45832 33021 ft 415 kts 61°
2026-04-26 23:15 49.33179 -54.37769 33009 ft 415 kts 61°
2026-04-26 23:15 49.35548 -54.29729 33006 ft 413 kts 61°
2026-04-26 23:16 49.37901 -54.21720 32996 ft 411 kts 61°
2026-04-26 23:16 49.40225 -54.13782 33005 ft 410 kts 61°
2026-04-26 23:17 49.42556 -54.05795 33031 ft 410 kts 61°
2026-04-26 23:17 49.44885 -53.97794 33005 ft 410 kts 61°
2026-04-26 23:18 49.47211 -53.89773 32994 ft 411 kts 61°
2026-04-26 23:18 49.49530 -53.81745 32989 ft 411 kts 61°
2026-04-26 23:19 49.51845 -53.73708 32989 ft 411 kts 61°
2026-04-26 23:19 49.54156 -53.65658 32985 ft 411 kts 61°
2026-04-26 23:20 49.56464 -53.57589 32996 ft 412 kts 61°
2026-04-26 23:20 49.58768 -53.49509 32978 ft 412 kts 61°
2026-04-26 23:21 49.61067 -53.41417 32970 ft 411 kts 61°
2026-04-26 23:21 49.63351 -53.33349 32954 ft 410 kts 61°
2026-04-26 23:22 49.65621 -53.25302 32960 ft 408 kts 61°
2026-04-26 23:22 49.67881 -53.17266 32944 ft 408 kts 61°
2026-04-26 23:23 49.70137 -53.09221 32946 ft 408 kts 61°
2026-04-26 23:23 49.72389 -53.01163 32927 ft 409 kts 61°
2026-04-26 23:24 49.74639 -52.93080 32927 ft 410 kts 61°
2026-04-26 23:24 49.76873 -52.85029 32919 ft 410 kts 61°
2026-04-26 23:25 49.79120 -52.76902 32922 ft 411 kts 61°
2026-04-26 23:25 49.81364 -52.68759 32910 ft 411 kts 61°
2026-04-26 23:26 49.83602 -52.60609 32901 ft 411 kts 61°
2026-04-26 23:26 49.85834 -52.52451 32903 ft 411 kts 62°
2026-04-26 23:27 49.88061 -52.44285 32912 ft 411 kts 62°
2026-04-26 23:27 49.90277 -52.36124 32909 ft 410 kts 62°
2026-04-26 23:28 49.92485 -52.27970 32877 ft 410 kts 62°
2026-04-26 23:28 49.94686 -52.19816 32880 ft 409 kts 62°
2026-04-26 23:29 49.96882 -52.11652 32875 ft 410 kts 62°
2026-04-26 23:29 49.99075 -52.03469 32871 ft 410 kts 62°
2026-04-26 23:30 50.00844 -51.95030 32865 ft 418 kts 69°
2026-04-26 23:30 50.02226 -51.86263 32858 ft 418 kts 69°
2026-04-26 23:31 50.03631 -51.77481 32840 ft 419 kts 69°
2026-04-26 23:31 50.05038 -51.68688 32845 ft 419 kts 69°
2026-04-26 23:32 50.06439 -51.59884 32884 ft 419 kts 69°
2026-04-26 23:32 50.07834 -51.51066 32826 ft 419 kts 69°
2026-04-26 23:33 50.09221 -51.42251 32824 ft 419 kts 69°
2026-04-26 23:33 50.10599 -51.33446 32815 ft 418 kts 69°
2026-04-26 23:34 50.11970 -51.24639 32804 ft 418 kts 69°
2026-04-26 23:34 50.13335 -51.15826 32792 ft 418 kts 69°
2026-04-26 23:35 50.14694 -51.07000 32788 ft 419 kts 69°
2026-04-26 23:35 50.16038 -50.98226 32793 ft 419 kts 69°
2026-04-26 23:36 50.17385 -50.89381 32773 ft 419 kts 69°
2026-04-26 23:36 50.18727 -50.80519 32830 ft 421 kts 69°
2026-04-26 23:37 50.20074 -50.71591 32775 ft 424 kts 69°
2026-04-26 23:37 50.21421 -50.62600 32750 ft 426 kts 69°
2026-04-26 23:38 50.22764 -50.53573 32742 ft 427 kts 69°
2026-04-26 23:38 50.24102 -50.44529 32742 ft 427 kts 70°
2026-04-26 23:39 50.25433 -50.35480 32739 ft 427 kts 70°
2026-04-26 23:39 50.26755 -50.26436 32723 ft 427 kts 70°
2026-04-26 23:40 50.28072 -50.17383 32717 ft 427 kts 70°
2026-04-26 23:40 50.29382 -50.08328 32709 ft 427 kts 70°
2026-04-26 23:41 50.30684 -49.99269 32732 ft 428 kts 70°
2026-04-26 23:41 50.31983 -49.90199 32701 ft 432 kts 70°
2026-04-26 23:42 50.33291 -49.80991 32697 ft 435 kts 70°
2026-04-26 23:42 50.35255 -49.67060 32674 ft 439 kts 70°
2026-04-26 23:43 50.36561 -49.57713 32677 ft 440 kts 70°
2026-04-26 23:43 50.37859 -49.48358 32672 ft 439 kts 70°
2026-04-26 23:44 50.39149 -49.39006 32669 ft 438 kts 70°
2026-04-26 23:44 50.40429 -49.29673 32659 ft 437 kts 70°
2026-04-26 23:45 50.41486 -49.21928 32651 ft 438 kts 71°
2026-04-26 23:45 50.42967 -49.11007 32656 ft 438 kts 71°
2026-04-26 23:46 50.44228 -49.01643 32644 ft 439 kts 71°
2026-04-26 23:46 50.45483 -48.92262 32640 ft 440 kts 71°
2026-04-26 23:47 50.46521 -48.84453 32639 ft 440 kts 71°
2026-04-26 23:47 50.47964 -48.73522 32621 ft 440 kts 71°
2026-04-26 23:48 50.49200 -48.64096 32620 ft 441 kts 71°
2026-04-26 23:48 50.50432 -48.54637 32614 ft 442 kts 71°
2026-04-26 23:49 50.51657 -48.45163 32618 ft 443 kts 71°
2026-04-26 23:49 50.52882 -48.35630 32606 ft 449 kts 72°
2026-04-26 23:50 50.53912 -48.27589 32603 ft 452 kts 72°
2026-04-26 23:50 50.55141 -48.17887 32593 ft 452 kts 73°
2026-04-26 23:51 50.56362 -48.08171 32584 ft 453 kts 73°
2026-04-26 23:51 50.57579 -47.98437 32580 ft 454 kts 73°
2026-04-26 23:52 50.58790 -47.88682 32582 ft 454 kts 73°
2026-04-26 23:52 50.59992 -47.78923 32577 ft 454 kts 73°
2026-04-26 23:53 50.61187 -47.69155 32568 ft 454 kts 73°
2026-04-26 23:53 50.62374 -47.59384 32598 ft 456 kts 74°
2026-04-26 23:54 50.63571 -47.49475 32575 ft 465 kts 74°
2026-04-26 23:54 50.64768 -47.39467 32561 ft 465 kts 75°
2026-04-26 23:55 50.65953 -47.29465 32567 ft 464 kts 75°
2026-04-26 23:55 50.67121 -47.19539 32569 ft 463 kts 75°
2026-04-26 23:56 50.68287 -47.09563 32566 ft 463 kts 75°
2026-04-26 23:56 50.69446 -46.99581 32564 ft 463 kts 75°
2026-04-26 23:57 50.70597 -46.89578 32566 ft 464 kts 75°
2026-04-26 23:57 50.71741 -46.79555 32569 ft 464 kts 75°
2026-04-26 23:58 50.72884 -46.69475 32571 ft 469 kts 76°
2026-04-26 23:58 50.74026 -46.59312 32565 ft 472 kts 76°
2026-04-26 23:59 50.75165 -46.49080 32559 ft 474 kts 77°
2026-04-26 23:59 50.76300 -46.38801 32555 ft 476 kts 77°
2026-04-27 00:00 50.77428 -46.28503 32549 ft 474 kts 77°
2026-04-27 00:00 50.78537 -46.18272 32549 ft 471 kts 77°
2026-04-27 00:01 50.79636 -46.08070 32547 ft 471 kts 77°
2026-04-27 00:01 50.80726 -45.97860 32543 ft 471 kts 78°
2026-04-27 00:02 50.81815 -45.87593 32559 ft 476 kts 78°
2026-04-27 00:02 50.82894 -45.77299 32556 ft 479 kts 78°
2026-04-27 00:03 50.83978 -45.66867 32548 ft 482 kts 79°
2026-04-27 00:03 50.85057 -45.56395 32545 ft 482 kts 79°
2026-04-27 00:04 50.86132 -45.45859 32545 ft 481 kts 79°
2026-04-27 00:04 50.87182 -45.35481 32544 ft 480 kts 79°
2026-04-27 00:05 50.88227 -45.25042 32549 ft 480 kts 79°
2026-04-27 00:05 50.89264 -45.14602 32566 ft 480 kts 79°
2026-04-27 00:06 50.90292 -45.04153 32554 ft 481 kts 80°
2026-04-27 00:06 50.91311 -44.93681 32552 ft 481 kts 80°
2026-04-27 00:07 50.92323 -44.83196 32545 ft 482 kts 81°
2026-04-27 00:07 50.93327 -44.72687 32551 ft 483 kts 81°
2026-04-27 00:08 50.94323 -44.62153 32549 ft 483 kts 81°
2026-04-27 00:08 50.95310 -44.51604 32549 ft 484 kts 81°
2026-04-27 00:09 50.96289 -44.41049 32551 ft 484 kts 81°
2026-04-27 00:09 50.97259 -44.30486 32549 ft 484 kts 82°
2026-04-27 00:10 50.98220 -44.19903 32553 ft 486 kts 82°
2026-04-27 00:10 50.99175 -44.09277 32557 ft 487 kts 82°
2026-04-27 00:11 51.00212 -43.98638 32558 ft 488 kts 78°
2026-04-27 00:11 51.01984 -43.88221 32564 ft 489 kts 75°
2026-04-27 00:12 51.03840 -43.77900 32538 ft 490 kts 75°
2026-04-27 00:12 51.05679 -43.67476 32555 ft 490 kts 76°
2026-04-27 00:13 51.07489 -43.57022 32555 ft 491 kts 76°
2026-04-27 00:13 51.09285 -43.46542 32555 ft 491 kts 76°
2026-04-27 00:14 51.11072 -43.36055 32557 ft 491 kts 76°
2026-04-27 00:14 51.12852 -43.25556 32546 ft 492 kts 77°
2026-04-27 00:15 51.14627 -43.15012 32557 ft 494 kts 77°
2026-04-27 00:15 51.16399 -43.04422 32560 ft 496 kts 77°
2026-04-27 00:16 51.18168 -42.93794 32559 ft 497 kts 77°
2026-04-27 00:16 51.19929 -42.83151 32539 ft 497 kts 78°
2026-04-27 00:17 51.21681 -42.72494 32569 ft 497 kts 78°
2026-04-27 00:17 51.23424 -42.61822 32574 ft 497 kts 78°
2026-04-27 00:18 51.25158 -42.51130 32563 ft 497 kts 78°
2026-04-27 00:18 51.26871 -42.40510 32564 ft 497 kts 78°
2026-04-27 00:19 51.28585 -42.29810 32572 ft 497 kts 78°
2026-04-27 00:19 51.30289 -42.19109 32571 ft 497 kts 79°
2026-04-27 00:20 51.31983 -42.08404 32566 ft 497 kts 79°
2026-04-27 00:20 51.33667 -41.97681 32569 ft 497 kts 79°
2026-04-27 00:21 51.35342 -41.86952 32566 ft 497 kts 79°
2026-04-27 00:21 51.37007 -41.76218 32567 ft 497 kts 79°
2026-04-27 00:22 51.38661 -41.65477 32576 ft 497 kts 80°
2026-04-27 00:22 51.40308 -41.54718 32575 ft 497 kts 80°
2026-04-27 00:23 51.41944 -41.43954 32571 ft 498 kts 80°
2026-04-27 00:23 51.43572 -41.33173 32537 ft 498 kts 81°
2026-04-27 00:24 51.45177 -41.22469 32569 ft 497 kts 81°
2026-04-27 00:24 51.46784 -41.11675 32578 ft 498 kts 81°
2026-04-27 00:25 51.48383 -41.00864 32575 ft 498 kts 82°
2026-04-27 00:25 51.49974 -40.90038 32573 ft 498 kts 82°
2026-04-27 00:26 51.51555 -40.79210 32555 ft 498 kts 83°
2026-04-27 00:26 51.53122 -40.68398 32566 ft 497 kts 83°
2026-04-27 00:27 51.54674 -40.57597 32585 ft 496 kts 83°
2026-04-27 00:27 51.56215 -40.46807 32581 ft 495 kts 83°
2026-04-27 00:28 51.57745 -40.36014 32586 ft 495 kts 83°
2026-04-27 00:28 51.59266 -40.25224 32574 ft 494 kts 84°
2026-04-27 00:29 51.60761 -40.14523 32581 ft 493 kts 85°
2026-04-27 00:29 51.62254 -40.03752 32584 ft 493 kts 85°
2026-04-27 00:30 51.63738 -39.92977 32582 ft 493 kts 85°
2026-04-27 00:30 51.65212 -39.82201 32548 ft 493 kts 85°
2026-04-27 00:31 51.66678 -39.71413 32585 ft 494 kts 85°
2026-04-27 00:31 51.68136 -39.60589 32593 ft 495 kts 86°
2026-04-27 00:32 51.69588 -39.49726 32595 ft 497 kts 86°
2026-04-27 00:32 51.71035 -39.38833 32593 ft 497 kts 86°
2026-04-27 00:33 51.72471 -39.27932 32565 ft 497 kts 86°
2026-04-27 00:33 51.73896 -39.17025 32600 ft 497 kts 86°
2026-04-27 00:34 51.75314 -39.06097 32603 ft 498 kts 86°
2026-04-27 00:34 51.76713 -38.95224 32604 ft 498 kts 86°
2026-04-27 00:35 51.78113 -38.84269 32602 ft 498 kts 87°
2026-04-27 00:35 51.79501 -38.73341 32595 ft 495 kts 88°
2026-04-27 00:36 51.80869 -38.62452 32602 ft 494 kts 88°
2026-04-27 00:36 51.82223 -38.51580 32609 ft 493 kts 88°
2026-04-27 00:37 51.83566 -38.40714 32613 ft 493 kts 88°
2026-04-27 00:37 51.84899 -38.29846 32614 ft 493 kts 89°
2026-04-27 00:38 51.86221 -38.18983 32609 ft 492 kts 89°
2026-04-27 00:38 51.87533 -38.08117 32619 ft 492 kts 89°
2026-04-27 00:39 51.88834 -37.97246 32621 ft 492 kts 89°
2026-04-27 00:39 51.90126 -37.86361 32620 ft 493 kts 89°
2026-04-27 00:40 51.91410 -37.75462 32571 ft 492 kts 90°
2026-04-27 00:40 51.92682 -37.64583 32616 ft 490 kts 91°
2026-04-27 00:41 51.93930 -37.53805 32624 ft 489 kts 91°
2026-04-27 00:41 51.95173 -37.42970 32621 ft 489 kts 91°
2026-04-27 00:42 51.96404 -37.32145 32624 ft 488 kts 91°
2026-04-27 00:42 51.97427 -37.23086 32625 ft 487 kts 91°
2026-04-27 00:43 51.98639 -37.12272 32627 ft 487 kts 91°
2026-04-27 00:43 51.99834 -37.01530 32626 ft 487 kts 91°
2026-04-27 00:44 52.01431 -36.90653 32624 ft 494 kts 86°
2026-04-27 00:44 52.03192 -36.79927 32620 ft 495 kts 86°
2026-04-27 00:45 52.04955 -36.69120 32601 ft 494 kts 87°
2026-04-27 00:45 52.06683 -36.58310 32622 ft 494 kts 87°
2026-04-27 00:46 52.08389 -36.47486 32623 ft 495 kts 87°
2026-04-27 00:46 52.10084 -36.36647 32600 ft 494 kts 87°
2026-04-27 00:47 52.11768 -36.25831 32612 ft 492 kts 88°
2026-04-27 00:47 52.13436 -36.15046 32613 ft 491 kts 88°
2026-04-27 00:48 52.15091 -36.04263 32613 ft 491 kts 88°
2026-04-27 00:48 52.16735 -35.93473 32613 ft 491 kts 88°
2026-04-27 00:49 52.18371 -35.82670 32610 ft 491 kts 88°
2026-04-27 00:49 52.19999 -35.71855 32568 ft 491 kts 88°
2026-04-27 00:50 52.22423 -35.55603 32608 ft 493 kts 88°
2026-04-27 00:51 52.24031 -35.44725 32608 ft 494 kts 88°
2026-04-27 00:51 52.25632 -35.33828 32608 ft 494 kts 88°
2026-04-27 00:52 52.27224 -35.22920 32548 ft 494 kts 88°
2026-04-27 00:52 52.28795 -35.12076 32597 ft 495 kts 88°
2026-04-27 00:53 52.30369 -35.01124 32601 ft 496 kts 88°
2026-04-27 00:53 52.31936 -34.90143 32574 ft 496 kts 88°
2026-04-27 00:54 52.33495 -34.79163 32595 ft 496 kts 88°
2026-04-27 00:54 52.35041 -34.68181 32603 ft 495 kts 88°
2026-04-27 00:55 52.36576 -34.57196 32614 ft 496 kts 88°
2026-04-27 00:55 52.38100 -34.46197 32620 ft 496 kts 88°
2026-04-27 00:56 52.39617 -34.35184 32624 ft 496 kts 88°
2026-04-27 00:56 52.41122 -34.24166 32578 ft 496 kts 88°
2026-04-27 00:57 52.42617 -34.13148 32637 ft 496 kts 88°
2026-04-27 00:57 52.44102 -34.02114 32639 ft 496 kts 88°
2026-04-27 00:58 52.45578 -33.91056 32646 ft 497 kts 88°
2026-04-27 00:58 52.47046 -33.79986 32646 ft 497 kts 88°
2026-04-27 00:59 52.48504 -33.68901 32632 ft 498 kts 87°
2026-04-27 00:59 52.49956 -33.57764 32656 ft 501 kts 87°
2026-04-27 01:00 52.51406 -33.46554 32672 ft 503 kts 88°
2026-04-27 01:00 52.52853 -33.35294 32678 ft 504 kts 88°
2026-04-27 01:01 52.54283 -33.24083 32651 ft 505 kts 87°
2026-04-27 01:01 52.55710 -33.12824 32683 ft 502 kts 87°
2026-04-27 01:02 52.57116 -33.01618 32685 ft 499 kts 88°
2026-04-27 01:02 52.58503 -32.90461 32701 ft 497 kts 88°
2026-04-27 01:03 52.59875 -32.79332 32713 ft 496 kts 88°
2026-04-27 01:03 52.61233 -32.68207 32709 ft 495 kts 87°
2026-04-27 01:04 52.62581 -32.57085 32725 ft 496 kts 87°
2026-04-27 01:04 52.63923 -32.45926 32733 ft 497 kts 87°
2026-04-27 01:05 52.65257 -32.34741 32734 ft 498 kts 87°
2026-04-27 01:05 52.66582 -32.23533 32744 ft 499 kts 87°
2026-04-27 01:06 52.67899 -32.12308 32751 ft 499 kts 88°
2026-04-27 01:06 52.69205 -32.01076 32767 ft 499 kts 88°
2026-04-27 01:07 52.70499 -31.89852 32766 ft 498 kts 88°
2026-04-27 01:07 52.71780 -31.78630 32766 ft 497 kts 87°
2026-04-27 01:08 52.73050 -31.67412 32745 ft 498 kts 87°
2026-04-27 01:08 52.74302 -31.56242 32781 ft 499 kts 87°
2026-04-27 01:09 52.75557 -31.44947 32799 ft 501 kts 87°
2026-04-27 01:09 52.76806 -31.33606 32795 ft 503 kts 87°
2026-04-27 01:10 52.78048 -31.22243 32803 ft 503 kts 87°
2026-04-27 01:10 52.79278 -31.10874 32799 ft 503 kts 87°
2026-04-27 01:11 52.80497 -30.99491 32817 ft 503 kts 87°
2026-04-27 01:11 52.81706 -30.88094 32828 ft 504 kts 87°
2026-04-27 01:12 52.82906 -30.76680 32838 ft 504 kts 87°
2026-04-27 01:12 52.84094 -30.65262 32818 ft 504 kts 87°
2026-04-27 01:13 52.85271 -30.53838 32849 ft 504 kts 87°
2026-04-27 01:13 52.86439 -30.42388 32862 ft 505 kts 87°
2026-04-27 01:14 52.87598 -30.30913 32854 ft 505 kts 87°
2026-04-27 01:14 52.88745 -30.19443 32878 ft 505 kts 87°
2026-04-27 01:15 52.89874 -30.08036 32870 ft 505 kts 87°
2026-04-27 01:15 52.91000 -29.96541 32898 ft 506 kts 87°
2026-04-27 01:16 52.92118 -29.85017 32891 ft 507 kts 87°
2026-04-27 01:16 52.93225 -29.73474 32900 ft 507 kts 87°
2026-04-27 01:17 52.94321 -29.61926 32886 ft 507 kts 87°
2026-04-27 01:17 52.95406 -29.50375 32920 ft 507 kts 87°
2026-04-27 01:18 52.96481 -29.38811 32935 ft 507 kts 87°
2026-04-27 01:18 52.97543 -29.27245 32926 ft 507 kts 87°
2026-04-27 01:19 52.98595 -29.15669 32936 ft 507 kts 87°
2026-04-27 01:19 52.99637 -29.04092 32936 ft 507 kts 87°
2026-04-27 01:20 53.00329 -28.92519 32967 ft 502 kts 92°
2026-04-27 01:20 53.00671 -28.80945 32936 ft 502 kts 93°
2026-04-27 01:21 53.00995 -28.69439 32963 ft 502 kts 93°
2026-04-27 01:21 53.01335 -28.57845 32985 ft 503 kts 93°
2026-04-27 01:22 53.01677 -28.46245 32978 ft 503 kts 92°
2026-04-27 01:22 53.02012 -28.34619 33055 ft 506 kts 92°
2026-04-27 01:22 53.02175 -28.28779 33396 ft 506 kts 92°
2026-04-27 01:23 53.02336 -28.22958 33875 ft 503 kts 92°
2026-04-27 01:23 53.02493 -28.17166 34271 ft 501 kts 92°
2026-04-27 01:23 53.02646 -28.11399 34621 ft 500 kts 92°
2026-04-27 01:23 53.02796 -28.05626 34926 ft 500 kts 92°
2026-04-27 01:24 53.02942 -27.99854 35193 ft 501 kts 92°
2026-04-27 01:24 53.03084 -27.94072 35411 ft 502 kts 92°
2026-04-27 01:24 53.03225 -27.88279 35690 ft 502 kts 92°
2026-04-27 01:24 53.03364 -27.82491 35983 ft 501 kts 92°
2026-04-27 01:25 53.03500 -27.76708 36272 ft 501 kts 92°
2026-04-27 01:25 53.03633 -27.70928 36541 ft 501 kts 92°
2026-04-27 01:25 53.03763 -27.65152 36800 ft 501 kts 92°
2026-04-27 01:25 53.03890 -27.59363 36959 ft 502 kts 92°
2026-04-27 01:26 53.04014 -27.53549 37001 ft 504 kts 92°
2026-04-27 01:26 53.04256 -27.41936 37024 ft 501 kts 91°
2026-04-27 01:27 53.04485 -27.30513 37055 ft 497 kts 92°
2026-04-27 01:27 53.04701 -27.19063 37070 ft 495 kts 92°
2026-04-27 01:28 53.04905 -27.07622 37064 ft 495 kts 92°
2026-04-27 01:28 53.05097 -26.96178 37075 ft 496 kts 92°
2026-04-27 01:29 53.05280 -26.84711 37082 ft 497 kts 92°
2026-04-27 01:29 53.05453 -26.73213 37090 ft 498 kts 92°
2026-04-27 01:30 53.05615 -26.61693 37090 ft 499 kts 92°
2026-04-27 01:30 53.05766 -26.50157 37089 ft 500 kts 92°
2026-04-27 01:31 53.05905 -26.38611 37092 ft 500 kts 92°
2026-04-27 01:31 53.06034 -26.27054 37085 ft 500 kts 92°
2026-04-27 01:32 53.06152 -26.15509 37106 ft 499 kts 92°
2026-04-27 01:32 53.06258 -26.03973 37119 ft 499 kts 92°
2026-04-27 01:33 53.06353 -25.92517 37117 ft 499 kts 92°
2026-04-27 01:33 53.06436 -25.80987 37125 ft 499 kts 92°
2026-04-27 01:34 53.06509 -25.69462 37124 ft 498 kts 92°
2026-04-27 01:34 53.06561 -25.59813 37140 ft 498 kts 92°
2026-04-27 01:35 53.06613 -25.48299 37142 ft 498 kts 92°
2026-04-27 01:35 53.06654 -25.36788 37147 ft 498 kts 92°
2026-04-27 01:36 53.06684 -25.25271 37149 ft 498 kts 92°
2026-04-27 01:36 53.06702 -25.13764 37153 ft 497 kts 92°
2026-04-27 01:37 53.06711 -25.02340 37160 ft 497 kts 92°
2026-04-27 01:37 53.06708 -24.90765 37166 ft 497 kts 92°
2026-04-27 01:38 53.06693 -24.79342 37167 ft 497 kts 92°
2026-04-27 01:38 53.06668 -24.67843 37180 ft 497 kts 92°
2026-04-27 01:39 53.06631 -24.56338 37175 ft 497 kts 92°
2026-04-27 01:39 53.06583 -24.44841 37189 ft 497 kts 92°
2026-04-27 01:40 53.06525 -24.33342 37188 ft 497 kts 92°
2026-04-27 01:40 53.06455 -24.21844 37202 ft 497 kts 92°
2026-04-27 01:41 53.06374 -24.10342 37201 ft 498 kts 92°
2026-04-27 01:41 53.06281 -23.98843 37197 ft 497 kts 92°
2026-04-27 01:42 53.06179 -23.87354 37203 ft 497 kts 92°
2026-04-27 01:42 53.06066 -23.75871 37217 ft 497 kts 92°
2026-04-27 01:43 53.05940 -23.64382 37213 ft 497 kts 92°
2026-04-27 01:43 53.05804 -23.52901 37224 ft 497 kts 92°
2026-04-27 01:44 53.05656 -23.41420 37225 ft 497 kts 92°
2026-04-27 01:44 53.05499 -23.29947 37235 ft 496 kts 92°
2026-04-27 01:45 53.05331 -23.18555 37231 ft 496 kts 92°
2026-04-27 01:45 53.05151 -23.07088 37239 ft 496 kts 92°
2026-04-27 01:46 53.04960 -22.95626 37240 ft 496 kts 92°
2026-04-27 01:46 53.04758 -22.84174 37244 ft 496 kts 92°
2026-04-27 01:47 53.04546 -22.72733 37249 ft 495 kts 92°
2026-04-27 01:47 53.04323 -22.61312 37258 ft 494 kts 92°
2026-04-27 01:48 53.04089 -22.49901 37259 ft 494 kts 92°
2026-04-27 01:48 53.03844 -22.38501 37258 ft 494 kts 92°
2026-04-27 01:49 53.03588 -22.27105 37273 ft 494 kts 92°
2026-04-27 01:49 53.03322 -22.15710 37268 ft 494 kts 92°
2026-04-27 01:50 53.03045 -22.04315 37271 ft 494 kts 93°
2026-04-27 01:50 53.02756 -21.92909 37273 ft 494 kts 93°
2026-04-27 01:51 53.02457 -21.81510 37277 ft 494 kts 93°
2026-04-27 01:51 53.02149 -21.70199 37287 ft 493 kts 93°
2026-04-27 01:52 53.01829 -21.58829 37281 ft 492 kts 93°
2026-04-27 01:52 53.01499 -21.47495 37286 ft 491 kts 93°
2026-04-27 01:53 53.01159 -21.36185 37297 ft 490 kts 93°
2026-04-27 01:53 53.00809 -21.24899 37296 ft 489 kts 93°
2026-04-27 01:54 53.00450 -21.13631 37302 ft 489 kts 94°
2026-04-27 01:54 53.00081 -21.02359 37297 ft 489 kts 93°
2026-04-27 01:55 53.00170 -20.91079 37310 ft 489 kts 87°
2026-04-27 01:55 53.00528 -20.79791 37307 ft 490 kts 87°
2026-04-27 01:56 53.01047 -20.62825 37306 ft 491 kts 87°
2026-04-27 01:56 53.01353 -20.51499 37307 ft 491 kts 88°
2026-04-27 01:57 53.01623 -20.40163 37309 ft 491 kts 88°
2026-04-27 01:57 53.01886 -20.28831 37310 ft 491 kts 88°
2026-04-27 01:58 53.02144 -20.17506 37312 ft 490 kts 88°
2026-04-27 01:58 53.02392 -20.06200 37321 ft 489 kts 88°
2026-04-27 01:59 53.02630 -19.94915 37321 ft 488 kts 88°
2026-04-27 01:59 53.02856 -19.83651 37327 ft 487 kts 88°
2026-04-27 02:00 53.03070 -19.72478 37330 ft 487 kts 88°
2026-04-27 02:00 53.03273 -19.61240 37331 ft 487 kts 88°
2026-04-27 02:01 53.03467 -19.49993 37330 ft 487 kts 88°
2026-04-27 02:01 53.03651 -19.38742 37338 ft 487 kts 88°
2026-04-27 02:02 53.03824 -19.27490 37338 ft 487 kts 88°
2026-04-27 02:02 53.03986 -19.16226 37339 ft 488 kts 88°
2026-04-27 02:03 53.04137 -19.04959 37335 ft 488 kts 88°
2026-04-27 02:03 53.04278 -18.93690 37340 ft 488 kts 88°
2026-04-27 02:04 53.04409 -18.82416 37347 ft 488 kts 88°
2026-04-27 02:04 53.04528 -18.71150 37345 ft 488 kts 88°
2026-04-27 02:05 53.04637 -18.59883 37352 ft 488 kts 88°
2026-04-27 02:05 53.04735 -18.48615 37346 ft 487 kts 88°
2026-04-27 02:06 53.04823 -18.37367 37349 ft 486 kts 88°
2026-04-27 02:06 53.04900 -18.26139 37348 ft 486 kts 88°
2026-04-27 02:07 53.04966 -18.14999 37354 ft 485 kts 88°
2026-04-27 02:07 53.05021 -18.03802 37370 ft 484 kts 88°
2026-04-27 02:08 53.05066 -17.92618 37361 ft 484 kts 88°
2026-04-27 02:08 53.05101 -17.81443 37357 ft 483 kts 88°
2026-04-27 02:09 53.05125 -17.70277 37358 ft 483 kts 88°
2026-04-27 02:09 53.05138 -17.59120 37361 ft 483 kts 89°
2026-04-27 02:10 53.05141 -17.47954 37375 ft 483 kts 88°
2026-04-27 02:10 53.05134 -17.36784 37372 ft 483 kts 88°
2026-04-27 02:11 53.05117 -17.25613 37364 ft 483 kts 88°
2026-04-27 02:11 53.05088 -17.14437 37374 ft 484 kts 89°
2026-04-27 02:12 53.05050 -17.03262 37371 ft 484 kts 89°
2026-04-27 02:12 53.05000 -16.92074 37368 ft 484 kts 88°
2026-04-27 02:13 53.04941 -16.80886 37377 ft 484 kts 88°
2026-04-27 02:13 53.04871 -16.69774 37378 ft 484 kts 88°
2026-04-27 02:14 53.04790 -16.58594 37370 ft 484 kts 88°
2026-04-27 02:14 53.04699 -16.47415 37383 ft 483 kts 88°
2026-04-27 02:15 53.04597 -16.36251 37370 ft 483 kts 88°
2026-04-27 02:15 53.04486 -16.25092 37374 ft 483 kts 88°
2026-04-27 02:16 53.04364 -16.13940 37376 ft 483 kts 88°
2026-04-27 02:16 53.04231 -16.02791 37386 ft 482 kts 88°
2026-04-27 02:17 53.04088 -15.91644 37386 ft 482 kts 89°
2026-04-27 02:17 53.03935 -15.80499 37381 ft 483 kts 89°
2026-04-27 02:18 53.03771 -15.69356 37379 ft 483 kts 89°
2026-04-27 02:18 53.03597 -15.58207 37383 ft 483 kts 89°
2026-04-27 02:19 53.03412 -15.47055 37386 ft 483 kts 89°
2026-04-27 02:19 53.03216 -15.35903 37390 ft 483 kts 89°
2026-04-27 02:20 53.03011 -15.24756 37389 ft 483 kts 89°
2026-04-27 02:20 53.02795 -15.13617 37390 ft 482 kts 89°
2026-04-27 02:21 53.02569 -15.02496 37386 ft 481 kts 89°
2026-04-27 02:21 53.02333 -14.91394 37383 ft 481 kts 89°
2026-04-27 02:22 53.02087 -14.80303 37391 ft 480 kts 89°
2026-04-27 02:22 53.01831 -14.69226 37389 ft 480 kts 89°
2026-04-27 02:23 53.01611 -14.60027 37390 ft 480 kts 89°
2026-04-27 02:23 53.01337 -14.48967 37388 ft 479 kts 89°
2026-04-27 02:24 53.01052 -14.37902 37388 ft 480 kts 89°
2026-04-27 02:24 53.00757 -14.26833 37397 ft 480 kts 89°
2026-04-27 02:25 53.00452 -14.15752 37390 ft 481 kts 89°
2026-04-27 02:25 53.00137 -14.04659 37390 ft 481 kts 89°
2026-04-27 02:26 52.99519 -13.93578 37394 ft 483 kts 95°
2026-04-27 02:26 52.98509 -13.82538 37393 ft 484 kts 96°
2026-04-27 02:27 52.97478 -13.71492 37393 ft 485 kts 95°
2026-04-27 02:27 52.96468 -13.60502 37393 ft 485 kts 95°
2026-04-27 02:28 52.95456 -13.49447 37389 ft 485 kts 95°
2026-04-27 02:28 52.94438 -13.38400 37390 ft 484 kts 95°
2026-04-27 02:29 52.93410 -13.27380 37387 ft 483 kts 95°
2026-04-27 02:29 52.92372 -13.16376 37393 ft 483 kts 95°
2026-04-27 02:30 52.91324 -13.05379 37389 ft 483 kts 95°
2026-04-27 02:30 52.90266 -12.94395 37391 ft 483 kts 96°
2026-04-27 02:31 52.89200 -12.83427 37391 ft 482 kts 96°
2026-04-27 02:31 52.88123 -12.72462 37391 ft 482 kts 96°
2026-04-27 02:32 52.87036 -12.61498 37391 ft 483 kts 96°
2026-04-27 02:32 52.85937 -12.50530 37388 ft 483 kts 96°
2026-04-27 02:33 52.84829 -12.39568 37389 ft 483 kts 96°
2026-04-27 02:33 52.83709 -12.28604 37388 ft 483 kts 96°
2026-04-27 02:34 52.82579 -12.17640 37412 ft 484 kts 96°
2026-04-27 02:34 52.81438 -12.06676 37397 ft 484 kts 96°
2026-04-27 02:35 52.80294 -11.95781 37387 ft 484 kts 96°
2026-04-27 02:35 52.79132 -11.84818 37388 ft 484 kts 96°
2026-04-27 02:36 52.77960 -11.73865 37389 ft 484 kts 96°
2026-04-27 02:36 52.76778 -11.62913 37404 ft 484 kts 96°
2026-04-27 02:37 52.75585 -11.51960 37388 ft 485 kts 96°
2026-04-27 02:37 52.74380 -11.40996 37388 ft 486 kts 96°
2026-04-27 02:38 52.73164 -11.30035 37388 ft 486 kts 96°
2026-04-27 02:38 52.71938 -11.19073 37387 ft 486 kts 96°
2026-04-27 02:39 52.70700 -11.08111 37398 ft 486 kts 96°
2026-04-27 02:39 52.69452 -10.97144 37395 ft 487 kts 96°
2026-04-27 02:40 52.68193 -10.86180 37382 ft 487 kts 96°
2026-04-27 02:40 52.66922 -10.75212 37382 ft 487 kts 96°
2026-04-27 02:41 52.65642 -10.64256 37375 ft 487 kts 97°
2026-04-27 02:41 52.64351 -10.53296 37376 ft 487 kts 97°
2026-04-27 02:42 52.63050 -10.42343 37381 ft 487 kts 97°
2026-04-27 02:42 52.61739 -10.31401 37373 ft 487 kts 97°
2026-04-27 02:43 52.60418 -10.20463 37382 ft 488 kts 97°
2026-04-27 02:43 52.59095 -10.09599 37381 ft 488 kts 97°
2026-04-27 02:44 52.57754 -9.98670 37387 ft 488 kts 97°
2026-04-27 02:44 52.56403 -9.87749 37381 ft 487 kts 98°
2026-04-27 02:45 52.55045 -9.76844 37376 ft 487 kts 98°
2026-04-27 02:45 52.53804 -9.65934 37377 ft 484 kts 94°
2026-04-27 02:46 52.52892 -9.54989 37381 ft 484 kts 94°
2026-04-27 02:46 52.52005 -9.44031 37382 ft 484 kts 94°
2026-04-27 02:47 52.51090 -9.33073 37371 ft 485 kts 94°
2026-04-27 02:47 52.50149 -9.22116 37374 ft 485 kts 94°
2026-04-27 02:48 52.49201 -9.11233 37374 ft 485 kts 94°
2026-04-27 02:48 52.48236 -9.00273 37372 ft 485 kts 94°
2026-04-27 02:49 52.47261 -8.89306 37377 ft 486 kts 95°
2026-04-27 02:49 52.46274 -8.78332 37364 ft 487 kts 95°
2026-04-27 02:50 52.45277 -8.67360 37368 ft 486 kts 95°
2026-04-27 02:50 52.44270 -8.56395 37364 ft 486 kts 95°
2026-04-27 02:51 52.43254 -8.45439 37375 ft 486 kts 95°
2026-04-27 02:51 52.42227 -8.34478 37362 ft 487 kts 96°
2026-04-27 02:52 52.41189 -8.23528 37355 ft 487 kts 96°
2026-04-27 02:52 52.40142 -8.12583 37371 ft 486 kts 96°
2026-04-27 02:53 52.39084 -8.01635 37356 ft 487 kts 96°
2026-04-27 02:53 52.38022 -7.90756 37356 ft 487 kts 96°
2026-04-27 02:54 52.36942 -7.79805 37353 ft 488 kts 96°
2026-04-27 02:54 52.35851 -7.68856 37350 ft 488 kts 96°
2026-04-27 02:55 52.34752 -7.57916 37358 ft 488 kts 96°
2026-04-27 02:55 52.33639 -7.46959 37344 ft 488 kts 97°
2026-04-27 02:56 52.32518 -7.36010 37347 ft 489 kts 97°
2026-04-27 02:56 52.31384 -7.25055 37338 ft 489 kts 97°
2026-04-27 02:57 52.30239 -7.14100 37339 ft 489 kts 97°
2026-04-27 02:57 52.29085 -7.03148 37334 ft 489 kts 97°
2026-04-27 02:58 52.27920 -6.92198 37344 ft 489 kts 98°
2026-04-27 02:58 52.26745 -6.81259 37326 ft 490 kts 98°
2026-04-27 02:59 52.25559 -6.70312 37325 ft 490 kts 98°
2026-04-27 02:59 52.24370 -6.59440 37322 ft 490 kts 98°
2026-04-27 03:00 52.23162 -6.48504 37326 ft 490 kts 98°
2026-04-27 03:00 52.21946 -6.37563 37331 ft 490 kts 98°
2026-04-27 03:01 52.20718 -6.26621 37307 ft 491 kts 99°
2026-04-27 03:01 52.19478 -6.15681 37321 ft 491 kts 99°
2026-04-27 03:02 52.18229 -6.04750 37323 ft 491 kts 99°
2026-04-27 03:02 52.16971 -5.93820 37322 ft 491 kts 99°
2026-04-27 03:03 52.15059 -5.77434 37319 ft 491 kts 99°
2026-04-27 03:04 52.13758 -5.66516 37322 ft 491 kts 100°
2026-04-27 03:04 52.12447 -5.55611 37310 ft 491 kts 100°
2026-04-27 03:05 52.11130 -5.44717 37310 ft 491 kts 100°
2026-04-27 03:05 52.09804 -5.33836 37307 ft 490 kts 100°
2026-04-27 03:06 52.08470 -5.22965 37321 ft 490 kts 100°
2026-04-27 03:06 52.07126 -5.12107 37320 ft 490 kts 100°
2026-04-27 03:07 52.05771 -5.01251 37309 ft 490 kts 100°
2026-04-27 03:07 52.04407 -4.90405 37308 ft 490 kts 101°
2026-04-27 03:08 52.03032 -4.79558 37307 ft 491 kts 101°
2026-04-27 03:08 52.01645 -4.68707 37301 ft 491 kts 101°
2026-04-27 03:09 52.00247 -4.57852 37324 ft 492 kts 101°
2026-04-27 03:09 51.98847 -4.47062 37301 ft 492 kts 101°
2026-04-27 03:10 51.97427 -4.36202 37309 ft 492 kts 102°
2026-04-27 03:10 51.95996 -4.25344 37318 ft 492 kts 102°
2026-04-27 03:11 51.94555 -4.14491 37300 ft 492 kts 102°
2026-04-27 03:11 51.93106 -4.03667 37306 ft 491 kts 102°
2026-04-27 03:12 51.91650 -3.92861 37299 ft 491 kts 102°
2026-04-27 03:12 51.90185 -3.82065 37300 ft 491 kts 103°
2026-04-27 03:13 51.88709 -3.71284 37311 ft 491 kts 103°
2026-04-27 03:13 51.87224 -3.60505 37310 ft 491 kts 103°
2026-04-27 03:14 51.85737 -3.49795 37309 ft 491 kts 103°
2026-04-27 03:14 51.84231 -3.39017 37301 ft 491 kts 103°
2026-04-27 03:15 51.82715 -3.28248 37299 ft 492 kts 103°
2026-04-27 03:15 51.81186 -3.17470 37277 ft 492 kts 103°
2026-04-27 03:16 51.79647 -3.06697 37276 ft 492 kts 103°
2026-04-27 03:16 51.78360 -2.97744 37261 ft 492 kts 103°
2026-04-27 03:17 51.76802 -2.86975 37253 ft 493 kts 104°
2026-04-27 03:17 51.75234 -2.76208 37307 ft 493 kts 104°
2026-04-27 03:18 51.73653 -2.65437 37290 ft 494 kts 104°
2026-04-27 03:18 51.72061 -2.54659 37297 ft 494 kts 104°
2026-04-27 03:19 51.70458 -2.43884 37310 ft 494 kts 104°
2026-04-27 03:19 51.68844 -2.33107 37306 ft 495 kts 104°
2026-04-27 03:20 51.67218 -2.22322 37306 ft 496 kts 104°
2026-04-27 03:20 51.65579 -2.11528 37306 ft 497 kts 105°
2026-04-27 03:21 51.63939 -2.00797 37305 ft 497 kts 105°
2026-04-27 03:21 51.62278 -1.89998 37285 ft 498 kts 105°
2026-04-27 03:22 51.60604 -1.79188 37303 ft 498 kts 105°
2026-04-27 03:22 51.58918 -1.68362 37296 ft 499 kts 105°
2026-04-27 03:23 51.56882 -1.57712 37303 ft 498 kts 110°
2026-04-27 03:23 51.54585 -1.47194 37293 ft 499 kts 111°
2026-04-27 03:24 51.52317 -1.36652 37293 ft 500 kts 110°
2026-04-27 03:24 51.50049 -1.26095 37295 ft 501 kts 111°
2026-04-27 03:25 51.48244 -1.15291 37299 ft 503 kts 102°
2026-04-27 03:25 51.46981 -1.04264 37300 ft 503 kts 102°
2026-04-27 03:26 51.45624 -0.93257 37302 ft 503 kts 103°
2026-04-27 03:26 51.44229 -0.82252 37311 ft 504 kts 103°
2026-04-27 03:27 51.42830 -0.71240 37317 ft 505 kts 103°
2026-04-27 03:27 51.41423 -0.60208 37321 ft 505 kts 103°
2026-04-27 03:28 51.40017 -0.49254 37321 ft 506 kts 103°
2026-04-27 03:28 51.38589 -0.38225 37320 ft 506 kts 103°
2026-04-27 03:29 51.37153 -0.27209 37313 ft 505 kts 103°
2026-04-27 03:29 51.35706 -0.16207 37311 ft 505 kts 103°
2026-04-27 03:30 51.34249 -0.05222 37310 ft 505 kts 103°
2026-04-27 03:30 51.32835 0.05775 37303 ft 505 kts 101°
2026-04-27 03:31 51.31765 0.16885 37286 ft 506 kts 99°
2026-04-27 03:31 51.30751 0.28024 37280 ft 507 kts 100°
2026-04-27 03:32 51.29706 0.39181 37269 ft 508 kts 100°
2026-04-27 03:32 51.28631 0.50329 37268 ft 508 kts 100°
2026-04-27 03:33 51.27539 0.61485 37273 ft 508 kts 100°
2026-04-27 03:33 51.26436 0.72641 37276 ft 509 kts 101°
2026-04-27 03:34 51.25331 0.83719 37288 ft 509 kts 101°
2026-04-27 03:34 51.24210 0.94860 37294 ft 508 kts 101°
2026-04-27 03:35 51.23078 1.05995 37291 ft 508 kts 101°
2026-04-27 03:35 51.21936 1.17117 37298 ft 508 kts 101°
2026-04-27 03:36 51.20783 1.28232 37296 ft 508 kts 101°
2026-04-27 03:36 51.19620 1.39343 37290 ft 508 kts 101°
2026-04-27 03:37 51.18447 1.50445 37294 ft 508 kts 101°
2026-04-27 03:37 51.17263 1.61545 37294 ft 508 kts 101°
2026-04-27 03:38 51.16068 1.72640 37288 ft 508 kts 101°
2026-04-27 03:38 51.14863 1.83734 37288 ft 508 kts 101°
2026-04-27 03:39 51.13648 1.94828 37284 ft 509 kts 101°
2026-04-27 03:39 51.12683 2.05978 37296 ft 509 kts 96°
2026-04-27 03:40 51.12120 2.17216 37290 ft 510 kts 95°
2026-04-27 03:40 51.11545 2.28465 37285 ft 510 kts 96°
2026-04-27 03:41 51.10926 2.39708 37280 ft 510 kts 96°
2026-04-27 03:41 51.10294 2.50874 37281 ft 510 kts 96°
2026-04-27 03:42 51.09633 2.62112 37278 ft 510 kts 98°
2026-04-27 03:42 51.08158 2.73102 37277 ft 507 kts 108°
2026-04-27 03:43 51.06138 2.83853 37295 ft 508 kts 108°
2026-04-27 03:43 51.04126 2.94611 37288 ft 508 kts 108°
2026-04-27 03:44 51.02141 3.05391 37282 ft 508 kts 108°
2026-04-27 03:44 51.00159 3.16173 37277 ft 509 kts 108°
2026-04-27 03:45 50.98164 3.26946 37271 ft 509 kts 108°
2026-04-27 03:45 50.96157 3.37707 37265 ft 509 kts 108°
2026-04-27 03:46 50.94139 3.48463 37269 ft 509 kts 108°
2026-04-27 03:46 50.92113 3.59216 37266 ft 509 kts 108°
2026-04-27 03:47 50.90069 3.69950 37262 ft 509 kts 108°
2026-04-27 03:47 50.87995 3.80673 37260 ft 509 kts 108°
2026-04-27 03:48 50.85910 3.91394 37262 ft 510 kts 108°
2026-04-27 03:48 50.83832 4.02042 37262 ft 510 kts 108°
2026-04-27 03:49 50.81732 4.12754 37267 ft 510 kts 108°
2026-04-27 03:49 50.79622 4.23453 37249 ft 510 kts 108°
2026-04-27 03:50 50.77502 4.34141 37265 ft 509 kts 108°
2026-04-27 03:50 50.75376 4.44806 37262 ft 509 kts 108°
2026-04-27 03:51 50.73242 4.55456 37263 ft 509 kts 109°
2026-04-27 03:51 50.71123 4.66102 37268 ft 508 kts 108°
2026-04-27 03:52 50.69068 4.76774 37259 ft 509 kts 108°
2026-04-27 03:52 50.67011 4.87386 37049 ft 500 kts 108°
2026-04-27 03:52 50.65990 4.92590 36563 ft 495 kts 108°
2026-04-27 03:53 50.64945 4.97777 35672 ft 500 kts 108°
2026-04-27 03:53 50.63865 5.03022 34665 ft 507 kts 108°
2026-04-27 03:53 50.62761 5.08332 33595 ft 513 kts 108°
2026-04-27 03:53 50.61647 5.13689 32591 ft 516 kts 108°
2026-04-27 03:54 50.60532 5.19056 31670 ft 516 kts 108°
2026-04-27 03:54 50.59417 5.24427 30769 ft 516 kts 108°
2026-04-27 03:54 50.58303 5.29785 29970 ft 513 kts 108°
2026-04-27 03:54 50.57201 5.35078 29282 ft 506 kts 108°
2026-04-27 03:55 50.56110 5.40302 28643 ft 499 kts 108°
2026-04-27 03:55 50.55032 5.45453 28002 ft 493 kts 108°
2026-04-27 03:55 50.53962 5.50550 27338 ft 489 kts 108°
2026-04-27 03:55 50.52900 5.55598 26669 ft 485 kts 108°
2026-04-27 03:56 50.51858 5.60534 26048 ft 480 kts 108°
2026-04-27 03:56 50.50827 5.65501 25427 ft 476 kts 107°
2026-04-27 03:56 50.49879 5.70461 24824 ft 472 kts 106°
2026-04-27 03:56 50.48976 5.75393 24254 ft 468 kts 106°
2026-04-27 03:57 50.48087 5.80287 23660 ft 464 kts 106°
2026-04-27 03:57 50.47198 5.85135 23014 ft 460 kts 106°
2026-04-27 03:57 50.46308 5.89930 22406 ft 455 kts 107°
2026-04-27 03:57 50.45419 5.94668 21840 ft 450 kts 107°
2026-04-27 03:58 50.44533 5.99355 21262 ft 446 kts 107°
2026-04-27 03:58 50.43653 6.03994 20700 ft 442 kts 107°
2026-04-27 03:58 50.42779 6.08586 20173 ft 437 kts 107°
2026-04-27 03:58 50.41913 6.13127 19642 ft 433 kts 107°
2026-04-27 03:59 50.41053 6.17626 19108 ft 429 kts 107°
2026-04-27 03:59 50.40199 6.22090 18579 ft 426 kts 107°
2026-04-27 03:59 50.39352 6.26508 18007 ft 422 kts 107°
2026-04-27 03:59 50.38510 6.30886 17428 ft 416 kts 107°
2026-04-27 04:00 50.37676 6.35210 16828 ft 413 kts 107°
2026-04-27 04:00 50.36855 6.39500 16264 ft 410 kts 105°
2026-04-27 04:00 50.36240 6.43835 15734 ft 406 kts 98°
2026-04-27 04:00 50.35870 6.48153 15115 ft 398 kts 100°
2026-04-27 04:01 50.35037 6.52287 14455 ft 400 kts 115°
2026-04-27 04:01 50.33603 6.55972 13888 ft 393 kts 124°
2026-04-27 04:01 50.32072 6.59512 13265 ft 392 kts 123°
2026-04-27 04:01 50.30624 6.63098 12745 ft 388 kts 121°
2026-04-27 04:02 50.29232 6.66660 12482 ft 377 kts 121°
2026-04-27 04:02 50.27902 6.70101 12392 ft 363 kts 121°
2026-04-27 04:02 50.26640 6.73373 12302 ft 350 kts 121°
2026-04-27 04:02 50.25406 6.76564 12209 ft 337 kts 121°
2026-04-27 04:03 50.24212 6.79642 12125 ft 325 kts 121°
2026-04-27 04:03 50.23059 6.82607 12042 ft 313 kts 121°
2026-04-27 04:03 50.21947 6.85469 11926 ft 304 kts 121°
2026-04-27 04:03 50.20887 6.88261 11759 ft 296 kts 120°
2026-04-27 04:04 50.19854 6.91009 11494 ft 292 kts 120°
2026-04-27 04:04 50.18826 6.93743 11155 ft 292 kts 120°
2026-04-27 04:04 50.17800 6.96468 10838 ft 291 kts 120°
2026-04-27 04:04 50.16778 6.99178 10539 ft 289 kts 120°
2026-04-27 04:05 50.15762 7.01868 10249 ft 287 kts 120°
2026-04-27 04:05 50.14749 7.04544 9942 ft 285 kts 120°
2026-04-27 04:05 50.13743 7.07201 9602 ft 284 kts 120°
2026-04-27 04:05 50.12742 7.09842 9275 ft 282 kts 120°
2026-04-27 04:06 50.11744 7.12469 8957 ft 281 kts 120°
2026-04-27 04:06 50.10750 7.15081 8638 ft 280 kts 120°
2026-04-27 04:06 50.09761 7.17682 8332 ft 278 kts 120°
2026-04-27 04:07 50.09113 7.23164 7829 ft 257 kts 68°
2026-04-27 04:07 50.09950 7.25538 7670 ft 246 kts 50°
2026-04-27 04:07 50.11177 7.27312 7380 ft 239 kts 32°
2026-04-27 04:07 50.12558 7.28691 7066 ft 239 kts 30°
2026-04-27 04:08 50.13970 7.30047 6786 ft 238 kts 30°
2026-04-27 04:08 50.15371 7.31397 6539 ft 234 kts 30°
2026-04-27 04:08 50.16715 7.32704 6458 ft 222 kts 30°
2026-04-27 04:08 50.17984 7.33951 6402 ft 208 kts 30°
2026-04-27 04:09 50.19172 7.35126 6274 ft 197 kts 31°
2026-04-27 04:09 50.19945 7.35890 6136 ft 193 kts 31°
2026-04-27 04:09 50.21048 7.36983 5882 ft 187 kts 31°
2026-04-27 04:09 50.22148 7.38075 5707 ft 187 kts 31°
2026-04-27 04:10 50.23256 7.39176 5604 ft 190 kts 31°
2026-04-27 04:10 50.24359 7.40273 5558 ft 191 kts 31°
2026-04-27 04:10 50.25333 7.41648 5473 ft 192 kts 62°
2026-04-27 04:10 50.25534 7.43685 5465 ft 196 kts 103°
2026-04-27 04:11 50.24902 7.45557 5469 ft 196 kts 122°
2026-04-27 04:11 50.24154 7.47376 5445 ft 202 kts 121°
2026-04-27 04:11 50.23396 7.49241 5394 ft 202 kts 121°
2026-04-27 04:11 50.22616 7.51031 5320 ft 197 kts 134°
2026-04-27 04:12 50.21421 7.51957 5286 ft 197 kts 177°
2026-04-27 04:12 50.20113 7.51423 5293 ft 198 kts 212°
2026-04-27 04:12 50.18933 7.50266 5291 ft 204 kts 213°
2026-04-27 04:12 50.17734 7.49092 5224 ft 202 kts 213°
2026-04-27 04:13 50.16558 7.47925 5133 ft 200 kts 214°
2026-04-27 04:13 50.15389 7.46759 5072 ft 198 kts 214°
2026-04-27 04:13 50.14227 7.45599 5024 ft 199 kts 213°
2026-04-27 04:13 50.13065 7.44440 5015 ft 198 kts 213°
2026-04-27 04:14 50.11902 7.43280 5013 ft 199 kts 213°
2026-04-27 04:14 50.10732 7.42117 4994 ft 199 kts 213°
2026-04-27 04:14 50.09557 7.40948 4863 ft 203 kts 213°
2026-04-27 04:14 50.08387 7.39784 4579 ft 193 kts 213°
2026-04-27 04:15 50.07306 7.38710 4328 ft 177 kts 213°
2026-04-27 04:15 50.06317 7.37728 4071 ft 160 kts 212°
2026-04-27 04:15 50.05381 7.36798 3896 ft 161 kts 212°
2026-04-27 04:15 50.04438 7.35862 3670 ft 160 kts 212°
2026-04-27 04:16 50.03509 7.34940 3454 ft 157 kts 212°
2026-04-27 04:16 50.02592 7.34030 3238 ft 156 kts 212°
2026-04-27 04:16 50.01675 7.33121 3029 ft 156 kts 211°
2026-04-27 04:16 50.00756 7.32211 2822 ft 157 kts 211°
2026-04-27 04:17 49.99853 7.31317 2605 ft 157 kts 211°
2026-04-27 04:17 49.98919 7.30409 2405 ft 157 kts 211°
2026-04-27 04:17 49.98029 7.29496 2179 ft 151 kts 213°
2026-04-27 04:17 49.97175 7.28588 1976 ft 146 kts 207°
2026-04-27 04:18 49.96309 7.27805 1776 ft 147 kts 210°
2026-04-27 04:18 49.95453 7.26959 1671 ft 139 kts 210°
2026-04-27 04:18 49.94714 7.26247 1669 ft 109 kts 213°
2026-04-27 04:18 49.94178 7.25715 1679 ft 74 kts 212°
2026-04-27 04:19 49.93851 7.25388 1680 ft 38 kts 212°
2026-04-27 04:19 49.93697 7.25235 1684 ft 23 kts 212°
2026-04-27 04:19 49.93560 7.25102 1684 ft 23 kts 212°
2026-04-27 04:19 49.93426 7.24970 1688 ft 15 kts 213°
2026-04-27 04:20 49.93334 7.24893 1685 ft 15 kts 187°
2026-04-27 04:20 49.93265 7.24956 1679 ft 7 kts 126°
2026-04-27 04:20 49.93241 7.25027 1688 ft 7 kts 101°
2026-04-27 04:20 49.93258 7.25101 1686 ft 8 kts 44°
2026-04-27 04:21 49.93302 7.25156 1688 ft 9 kts 35°
2026-04-27 04:21 49.93355 7.25210 1686 ft 10 kts 33°
2026-04-27 04:21 49.93415 7.25271 1686 ft 11 kts 33°
2026-04-27 04:21 49.93482 7.25336 1684 ft 12 kts 32°
2026-04-27 04:22 49.93560 7.25414 1679 ft 15 kts 32°
2026-04-27 04:22 49.93645 7.25497 1684 ft 9 kts 32°
2026-04-27 04:22 49.93696 7.25562 1684 ft 10 kts 56°
2026-04-27 04:22 49.93707 7.25670 1677 ft 11 kts 84°
2026-04-27 04:23 49.93751 7.25761 1681 ft 11 kts 40°
2026-04-27 04:23 49.93814 7.25852 1682 ft 14 kts 48°
2026-04-27 04:23 49.93898 7.25959 1678 ft 16 kts 33°
2026-04-27 04:23 49.93992 7.26054 1678 ft 16 kts 33°
2026-04-27 04:24 49.94086 7.26150 1679 ft 16 kts 33°
2026-04-27 04:24 49.94179 7.26245 1676 ft 16 kts 33°
2026-04-27 04:24 49.94273 7.26341 1672 ft 16 kts 33°
2026-04-27 04:24 49.94366 7.26437 1672 ft 16 kts 33°
2026-04-27 04:25 49.94459 7.26533 1671 ft 16 kts 33°
2026-04-27 04:25 49.94532 7.26608 1669 ft 9 kts 34°
2026-04-27 04:25 49.94594 7.26637 1664 ft 10 kts
2026-04-27 04:25 49.94662 7.26667 1672 ft 11 kts 26°
2026-04-27 04:26 49.94727 7.26728 1669 ft 11 kts 32°
2026-04-27 04:26 49.94793 7.26794 1654 ft 12 kts 32°
2026-04-27 04:26 49.94863 7.26864 1652 ft 12 kts 33°
2026-04-27 04:26 49.94910 7.26911 1652 ft 6 kts 33°
2026-04-27 04:27 49.94946 7.26955 1651 ft 7 kts 52°
2026-04-27 04:27 49.94942 7.27026 1651 ft 7 kts 122°
2026-04-27 04:27 49.94937 7.27038 1651 ft 1 kts 123°
2026-04-27 04:27 49.94933 7.27048 1651 ft 2 kts 122°
2026-04-27 04:28 49.94923 7.27071 1651 ft 3 kts 122°
2026-04-27 04:28 49.94912 7.27100 1651 ft 3 kts 124°
2026-04-27 04:28 49.94904 7.27117 1651 ft 0 kts 121°